1000 dernières valeurs brutes
Date Temp Humidity Gust Pressure Rain
18 septembre 04:04 11.9°C 96% 0.0 km/h SE 1013.0 hPa 0 mm
18 septembre 04:03 12.0°C 96% 0.0 km/h SE 1013.0 hPa 0 mm
18 septembre 04:02 12.0°C 96% 0.5 km/h E 1013.0 hPa 0 mm
18 septembre 04:01 12.0°C 96% 0.5 km/h SE 1012.9 hPa 0 mm
18 septembre 04:00 12.1°C 96% 1.1 km/h SE 1013.0 hPa 0 mm
18 septembre 03:59 12.1°C 96% 1.1 km/h ESE 1013.0 hPa 0 mm
18 septembre 03:58 12.1°C 96% 1.1 km/h SSE 1013.0 hPa 0 mm
18 septembre 03:57 12.2°C 96% 0.0 km/h ESE 1013.0 hPa 0 mm
18 septembre 03:56 12.2°C 96% 0.0 km/h SE 1013.0 hPa 0 mm
18 septembre 03:55 12.1°C 96% 0.0 km/h E 1013.0 hPa 0 mm
18 septembre 03:54 12.1°C 96% 0.0 km/h SE 1013.0 hPa 0 mm
18 septembre 03:53 12.1°C 96% 0.0 km/h ESE 1013.1 hPa 0 mm
18 septembre 03:52 12.1°C 96% 0.0 km/h E 1013.0 hPa 0 mm
18 septembre 03:51 12.1°C 96% 0.0 km/h SE 1013.0 hPa 0 mm
18 septembre 03:50 12.2°C 96% 0.0 km/h ESE 1013.1 hPa 0 mm
18 septembre 03:49 12.2°C 96% 0.0 km/h ESE 1013.0 hPa 0 mm
18 septembre 03:48 12.3°C 96% 0.0 km/h ESE 1013.0 hPa 0 mm
18 septembre 03:47 12.4°C 96% 0.0 km/h ESE 1013.1 hPa 0 mm
18 septembre 03:46 12.4°C 96% 0.0 km/h ESE 1013.0 hPa 0 mm
18 septembre 03:45 12.4°C 96% 0.0 km/h E 1013.0 hPa 0 mm
18 septembre 03:44 12.3°C 96% 0.0 km/h E 1013.1 hPa 0 mm
18 septembre 03:43 12.5°C 96% 0.0 km/h ESE 1013.1 hPa 0 mm
18 septembre 03:42 12.7°C 96% 0.0 km/h SE 1013.1 hPa 0 mm
18 septembre 03:41 12.8°C 96% 0.0 km/h E 1013.0 hPa 0 mm
18 septembre 03:40 13.0°C 96% 0.0 km/h ESE 1013.1 hPa 0 mm
18 septembre 03:39 13.1°C 96% 0.0 km/h SSE 1013.1 hPa 0 mm
18 septembre 03:38 13.1°C 96% 0.0 km/h SE 1013.1 hPa 0 mm
18 septembre 03:37 13.0°C 96% 0.0 km/h SSE 1013.1 hPa 0 mm
18 septembre 03:36 12.8°C 97% 0.0 km/h SE 1013.1 hPa 0 mm
18 septembre 03:35 12.4°C 96% 0.0 km/h ESE 1013.1 hPa 0 mm
18 septembre 03:34 12.3°C 96% 0.0 km/h ESE 1013.1 hPa 0 mm
18 septembre 03:33 12.3°C 96% 0.0 km/h E 1013.1 hPa 0 mm
18 septembre 03:32 12.2°C 96% 0.0 km/h SE 1013.1 hPa 0 mm
18 septembre 03:31 12.1°C 96% 0.0 km/h ESE 1013.1 hPa 0 mm
18 septembre 03:30 12.2°C 96% 0.0 km/h ESE 1013.1 hPa 0 mm
18 septembre 03:29 12.2°C 96% 0.0 km/h SE 1013.1 hPa 0 mm
18 septembre 03:28 12.2°C 96% 0.0 km/h ESE 1013.1 hPa 0 mm
18 septembre 03:27 12.2°C 96% 0.0 km/h ESE 1013.1 hPa 0 mm
18 septembre 03:26 12.3°C 96% 0.0 km/h ESE 1013.1 hPa 0 mm
18 septembre 03:25 12.2°C 96% 0.0 km/h SE 1013.0 hPa 0 mm
18 septembre 03:24 12.1°C 96% 0.0 km/h ESE 1013.0 hPa 0 mm
18 septembre 03:23 12.1°C 96% 0.5 km/h ESE 1013.0 hPa 0 mm
18 septembre 03:22 12.2°C 96% 1.1 km/h SE 1013.1 hPa 0 mm
18 septembre 03:21 12.2°C 96% 0.5 km/h ESE 1013.1 hPa 0 mm
18 septembre 03:20 12.3°C 96% 1.1 km/h E 1013.1 hPa 0 mm
18 septembre 03:19 12.4°C 96% 1.6 km/h ESE 1013.1 hPa 0 mm
18 septembre 03:18 12.3°C 96% 0.5 km/h SE 1013.1 hPa 0 mm
18 septembre 03:17 12.3°C 96% 0.0 km/h ESE 1013.1 hPa 0 mm
18 septembre 03:16 12.3°C 96% 0.0 km/h SE 1013.1 hPa 0 mm
18 septembre 03:15 12.4°C 96% 0.0 km/h SE 1013.1 hPa 0 mm
18 septembre 03:14 12.4°C 96% 0.0 km/h SSE 1013.1 hPa 0 mm
18 septembre 03:13 12.4°C 96% 1.1 km/h SE 1013.1 hPa 0 mm
18 septembre 03:12 12.5°C 96% 0.5 km/h ESE 1013.1 hPa 0 mm
18 septembre 03:11 12.6°C 96% 1.1 km/h SE 1013.2 hPa 0 mm
18 septembre 03:10 12.7°C 96% 1.1 km/h SE 1013.2 hPa 0 mm
18 septembre 03:09 12.8°C 96% 0.5 km/h ESE 1013.2 hPa 0 mm
18 septembre 03:08 13.0°C 96% 0.0 km/h ESE 1013.2 hPa 0 mm
18 septembre 03:07 13.1°C 96% 0.0 km/h E 1013.2 hPa 0 mm
18 septembre 03:06 13.1°C 96% 0.5 km/h ESE 1013.2 hPa 0 mm
18 septembre 03:05 13.0°C 96% 0.5 km/h E 1013.1 hPa 0 mm
18 septembre 03:04 13.0°C 96% 0.5 km/h SE 1013.1 hPa 0 mm
18 septembre 03:03 12.7°C 96% 0.5 km/h SE 1013.2 hPa 0 mm
18 septembre 03:02 12.5°C 96% 0.5 km/h ESE 1013.2 hPa 0 mm
18 septembre 03:01 12.6°C 96% 0.0 km/h ESE 1013.2 hPa 0 mm
18 septembre 03:00 12.7°C 96% 1.1 km/h SE 1013.2 hPa 0 mm
18 septembre 02:59 12.6°C 96% 1.1 km/h ESE 1013.2 hPa 0 mm
18 septembre 02:58 12.6°C 96% 0.0 km/h ESE 1013.2 hPa 0 mm
18 septembre 02:57 12.6°C 96% 0.0 km/h SE 1013.1 hPa 0 mm
18 septembre 02:56 12.7°C 96% 1.1 km/h SE 1013.1 hPa 0 mm
18 septembre 02:55 12.7°C 96% 0.5 km/h E 1013.2 hPa 0 mm
18 septembre 02:54 12.7°C 96% 2.1 km/h ESE 1013.1 hPa 0 mm
18 septembre 02:53 12.5°C 96% 1.1 km/h ESE 1013.1 hPa 0 mm
18 septembre 02:52 12.3°C 96% 1.6 km/h SE 1013.1 hPa 0 mm
18 septembre 02:51 12.2°C 96% 2.1 km/h SE 1013.1 hPa 0 mm
18 septembre 02:50 12.2°C 96% 3.2 km/h SSO 1013.2 hPa 0 mm
18 septembre 02:49 12.2°C 96% 3.2 km/h S 1013.2 hPa 0 mm
18 septembre 02:48 12.2°C 96% 3.2 km/h SSE 1013.2 hPa 0 mm
18 septembre 02:47 12.1°C 96% 3.7 km/h S 1013.2 hPa 0 mm
18 septembre 02:46 12.2°C 96% 3.7 km/h SSO 1013.2 hPa 0 mm
18 septembre 02:45 12.2°C 96% 3.2 km/h SO 1013.1 hPa 0 mm
18 septembre 02:44 12.2°C 96% 3.2 km/h S 1013.2 hPa 0 mm
18 septembre 02:43 12.2°C 96% 2.6 km/h S 1013.1 hPa 0 mm
18 septembre 02:42 12.2°C 96% 2.1 km/h S 1013.0 hPa 0 mm
18 septembre 02:41 12.2°C 96% 2.1 km/h SSE 1013.0 hPa 0 mm
18 septembre 02:40 12.2°C 96% 1.1 km/h ESE 1013.1 hPa 0 mm
18 septembre 02:39 12.2°C 96% 1.6 km/h SE 1013.0 hPa 0 mm
18 septembre 02:38 12.1°C 96% 1.1 km/h SE 1013.1 hPa 0 mm
18 septembre 02:37 12.1°C 96% 1.1 km/h SE 1013.0 hPa 0 mm
18 septembre 02:36 12.1°C 96% 1.1 km/h ESE 1013.1 hPa 0 mm
18 septembre 02:35 12.1°C 96% 1.1 km/h E 1013.1 hPa 0 mm
18 septembre 02:34 12.1°C 96% 2.1 km/h SSE 1013.1 hPa 0 mm
18 septembre 02:33 12.1°C 96% 2.1 km/h S 1013.2 hPa 0 mm
18 septembre 02:32 12.1°C 96% 1.6 km/h SE 1013.1 hPa 0 mm
18 septembre 02:31 12.1°C 96% 1.6 km/h SE 1013.1 hPa 0 mm
18 septembre 02:30 12.1°C 96% 1.6 km/h ESE 1013.1 hPa 0 mm
18 septembre 02:29 12.2°C 96% 2.1 km/h SE 1013.1 hPa 0 mm
18 septembre 02:28 12.2°C 96% 2.6 km/h SE 1013.1 hPa 0 mm
18 septembre 02:27 12.2°C 96% 2.6 km/h SSO 1013.0 hPa 0 mm
18 septembre 02:26 12.2°C 96% 3.2 km/h S 1013.0 hPa 0 mm
18 septembre 02:25 12.2°C 96% 2.6 km/h S 1013.1 hPa 0 mm
18 septembre 02:24 12.2°C 96% 2.6 km/h SSE 1013.0 hPa 0 mm
18 septembre 02:23 12.2°C 96% 1.6 km/h SE 1013.0 hPa 0 mm
18 septembre 02:22 12.2°C 96% 1.6 km/h SE 1013.0 hPa 0.14 mm
18 septembre 02:21 12.2°C 96% 0.0 km/h SE 1013.0 hPa 0 mm
18 septembre 02:20 12.4°C 96% 0.0 km/h SE 1013.0 hPa 0 mm
18 septembre 02:07 12.3°C 96% 2.1 km/h S 1013.0 hPa 0 mm
18 septembre 02:06 12.3°C 96% 0.0 km/h SE 1013.0 hPa 0 mm
18 septembre 02:05 12.3°C 96% 0.0 km/h SE 1013.0 hPa 0 mm
18 septembre 02:04 12.4°C 96% 0.0 km/h SE 1013.0 hPa 0 mm
18 septembre 02:03 12.3°C 96% 0.0 km/h ESE 1013.0 hPa 0 mm
18 septembre 02:02 12.3°C 96% 0.0 km/h SE 1013.0 hPa 0 mm
18 septembre 02:01 12.3°C 96% 0.0 km/h SE 1012.9 hPa 0 mm
18 septembre 02:00 12.4°C 96% 1.1 km/h SE 1013.0 hPa 0 mm
18 septembre 01:59 12.4°C 96% 1.6 km/h S 1013.0 hPa 0 mm
18 septembre 01:58 12.3°C 96% 1.6 km/h S 1013.0 hPa 0 mm
18 septembre 01:57 12.3°C 96% 2.1 km/h S 1012.9 hPa 0 mm
18 septembre 01:56 12.3°C 96% 1.6 km/h S 1012.9 hPa 0 mm
18 septembre 01:55 12.3°C 96% 1.6 km/h E 1012.9 hPa 0 mm
18 septembre 01:54 12.4°C 96% 1.6 km/h SE 1012.9 hPa 0 mm
18 septembre 01:53 12.4°C 96% 2.1 km/h SE 1012.9 hPa 0 mm
18 septembre 01:52 12.4°C 96% 1.6 km/h SE 1012.9 hPa 0 mm
18 septembre 01:51 12.4°C 96% 1.6 km/h SE 1013.0 hPa 0 mm
18 septembre 01:50 12.5°C 95% 2.1 km/h ESE 1012.9 hPa 0 mm
18 septembre 01:49 12.6°C 96% 1.1 km/h SE 1012.9 hPa 0 mm
18 septembre 01:48 12.6°C 96% 1.6 km/h SE 1012.9 hPa 0 mm
18 septembre 01:47 12.6°C 96% 0.5 km/h SE 1012.9 hPa 0 mm
18 septembre 01:46 12.4°C 96% 0.0 km/h SE 1013.0 hPa 0 mm
18 septembre 01:45 12.4°C 95% 0.0 km/h SE 1012.9 hPa 0 mm
18 septembre 01:44 12.4°C 96% 0.0 km/h E 1012.9 hPa 0 mm
18 septembre 01:43 12.4°C 95% 1.1 km/h SE 1012.9 hPa 0 mm
18 septembre 01:42 12.4°C 95% 2.1 km/h SSE 1012.9 hPa 0 mm
18 septembre 01:41 12.5°C 96% 1.6 km/h SE 1012.9 hPa 0 mm
18 septembre 01:40 12.4°C 95% 2.1 km/h ESE 1012.9 hPa 0 mm
18 septembre 01:39 12.5°C 95% 2.6 km/h SSE 1012.9 hPa 0 mm
18 septembre 01:38 12.4°C 95% 1.6 km/h S 1012.9 hPa 0 mm
18 septembre 01:37 12.5°C 96% 1.6 km/h SSE 1012.9 hPa 0 mm
18 septembre 01:36 12.5°C 96% 2.1 km/h SE 1012.9 hPa 0 mm
18 septembre 01:35 12.4°C 95% 2.1 km/h S 1012.8 hPa 0 mm
18 septembre 01:34 12.5°C 95% 2.1 km/h SSO 1012.8 hPa 0 mm
18 septembre 01:33 12.5°C 96% 2.1 km/h SSE 1012.8 hPa 0 mm
18 septembre 01:32 12.5°C 95% 1.1 km/h SE 1012.8 hPa 0 mm
18 septembre 01:31 12.6°C 95% 1.1 km/h ESE 1012.8 hPa 0 mm
18 septembre 01:30 12.6°C 95% 1.1 km/h SE 1012.8 hPa 0 mm
18 septembre 01:29 12.6°C 95% 0.0 km/h SE 1012.8 hPa 0 mm
18 septembre 01:28 12.7°C 95% 0.0 km/h SE 1012.8 hPa 0 mm
18 septembre 01:27 12.8°C 95% 0.0 km/h ESE 1012.8 hPa 0 mm
18 septembre 01:26 12.9°C 95% 0.5 km/h E 1012.8 hPa 0 mm
18 septembre 01:25 13.0°C 95% 0.0 km/h SE 1012.8 hPa 0 mm
18 septembre 01:24 13.0°C 95% 0.0 km/h ESE 1012.8 hPa 0 mm
18 septembre 01:23 13.0°C 96% 0.5 km/h E 1012.8 hPa 0 mm
18 septembre 01:22 12.9°C 96% 0.5 km/h SE 1012.8 hPa 0 mm
18 septembre 01:21 12.8°C 96% 0.0 km/h ESE 1012.8 hPa 0 mm
18 septembre 01:20 12.8°C 96% 0.5 km/h ESE 1012.8 hPa 0 mm
18 septembre 01:19 12.6°C 95% 0.0 km/h E 1012.8 hPa 0 mm
18 septembre 01:18 12.5°C 95% 0.0 km/h SE 1012.9 hPa 0 mm
18 septembre 01:17 12.6°C 95% 0.0 km/h SSE 1012.9 hPa 0 mm
18 septembre 01:16 12.6°C 95% 1.1 km/h SSE 1012.9 hPa 0 mm
18 septembre 01:15 12.7°C 95% 1.6 km/h ESE 1012.9 hPa 0 mm
18 septembre 01:14 12.7°C 95% 2.1 km/h S 1012.9 hPa 0 mm
18 septembre 01:13 12.7°C 95% 2.1 km/h SSE 1012.9 hPa 0 mm
18 septembre 01:12 12.7°C 95% 2.1 km/h ESE 1012.9 hPa 0 mm
18 septembre 01:11 12.7°C 95% 2.6 km/h ESE 1012.9 hPa 0 mm
18 septembre 01:10 12.7°C 95% 2.1 km/h SSE 1012.9 hPa 0 mm
18 septembre 01:09 12.7°C 95% 1.6 km/h SE 1012.9 hPa 0 mm
18 septembre 01:08 12.7°C 95% 0.0 km/h SSE 1012.8 hPa 0 mm
18 septembre 01:07 12.8°C 95% 0.0 km/h SSE 1012.8 hPa 0 mm
18 septembre 01:06 12.8°C 95% 0.0 km/h SE 1012.8 hPa 0 mm
18 septembre 01:05 12.8°C 95% 0.0 km/h SE 1012.8 hPa 0 mm
18 septembre 01:04 12.8°C 95% 0.0 km/h SSE 1012.8 hPa 0 mm
18 septembre 01:03 12.8°C 95% 0.0 km/h SSE 1012.8 hPa 0 mm
18 septembre 01:02 12.8°C 95% 0.0 km/h E 1012.8 hPa 0 mm
18 septembre 01:01 12.9°C 95% 0.5 km/h SE 1012.8 hPa 0 mm
18 septembre 01:00 13.0°C 95% 0.5 km/h SE 1012.8 hPa 0 mm
18 septembre 00:59 13.0°C 95% 1.6 km/h SSE 1012.8 hPa 0 mm
18 septembre 00:58 13.0°C 95% 1.6 km/h ESE 1012.8 hPa 0 mm
18 septembre 00:57 13.0°C 95% 0.0 km/h E 1012.8 hPa 0 mm
18 septembre 00:56 13.0°C 95% 0.0 km/h ESE 1012.8 hPa 0 mm
18 septembre 00:55 13.1°C 95% 0.0 km/h SSE 1012.8 hPa 0 mm
18 septembre 00:54 13.1°C 95% 0.0 km/h SE 1012.8 hPa 0 mm
18 septembre 00:53 13.2°C 95% 0.0 km/h SE 1012.8 hPa 0 mm
18 septembre 00:52 13.3°C 95% 1.1 km/h SSE 1012.8 hPa 0 mm
18 septembre 00:51 13.3°C 95% 2.1 km/h ESE 1012.8 hPa 0 mm
18 septembre 00:50 13.4°C 95% 2.1 km/h SSE 1012.8 hPa 0 mm
18 septembre 00:49 13.4°C 95% 1.6 km/h SE 1012.8 hPa 0 mm
18 septembre 00:48 13.4°C 95% 0.0 km/h SE 1012.9 hPa 0 mm
18 septembre 00:47 13.3°C 95% 0.0 km/h SE 1012.9 hPa 0 mm
18 septembre 00:46 13.3°C 95% 1.1 km/h ESE 1012.9 hPa 0 mm
18 septembre 00:45 13.2°C 95% 1.1 km/h E 1012.9 hPa 0 mm
18 septembre 00:44 13.2°C 95% 1.1 km/h SE 1012.9 hPa 0 mm
18 septembre 00:43 13.1°C 95% 2.6 km/h SSE 1012.9 hPa 0 mm
18 septembre 00:42 13.0°C 95% 3.2 km/h SE 1012.9 hPa 0 mm
18 septembre 00:41 13.0°C 95% 3.7 km/h SSE 1012.9 hPa 0 mm
18 septembre 00:40 13.0°C 95% 3.2 km/h SSE 1013.0 hPa 0 mm
18 septembre 00:39 12.9°C 95% 3.2 km/h S 1013.0 hPa 0 mm
18 septembre 00:38 12.9°C 95% 3.7 km/h S 1012.9 hPa 0 mm
18 septembre 00:37 12.8°C 95% 3.7 km/h SSO 1013.0 hPa 0 mm
18 septembre 00:36 12.8°C 95% 4.2 km/h S 1012.9 hPa 0 mm
18 septembre 00:35 12.7°C 95% 4.2 km/h SSE 1013.0 hPa 0 mm
18 septembre 00:34 12.7°C 95% 3.7 km/h S 1012.9 hPa 0 mm
18 septembre 00:33 12.8°C 95% 3.2 km/h S 1012.9 hPa 0 mm
18 septembre 00:32 12.7°C 95% 3.7 km/h S 1012.9 hPa 0 mm
18 septembre 00:31 12.7°C 95% 2.6 km/h SSO 1012.9 hPa 0 mm
18 septembre 00:30 12.7°C 95% 2.6 km/h SSE 1012.9 hPa 0 mm
18 septembre 00:29 12.7°C 95% 2.6 km/h S 1012.9 hPa 0 mm
18 septembre 00:28 12.8°C 95% 3.7 km/h S 1012.9 hPa 0 mm
18 septembre 00:27 12.8°C 95% 3.2 km/h S 1012.9 hPa 0 mm
18 septembre 00:26 12.8°C 95% 3.7 km/h SSO 1012.8 hPa 0 mm
18 septembre 00:25 12.8°C 95% 4.2 km/h SE 1012.9 hPa 0 mm
18 septembre 00:24 12.8°C 95% 4.2 km/h S 1012.9 hPa 0 mm
18 septembre 00:23 12.8°C 95% 3.7 km/h SSO 1012.9 hPa 0 mm
18 septembre 00:22 12.9°C 95% 3.7 km/h SSE 1012.8 hPa 0 mm
18 septembre 00:21 12.9°C 95% 3.2 km/h SSO 1012.8 hPa 0 mm
18 septembre 00:20 13.0°C 95% 1.6 km/h SSE 1012.8 hPa 0 mm
18 septembre 00:19 13.0°C 95% 1.1 km/h ESE 1012.7 hPa 0 mm
18 septembre 00:18 13.0°C 95% 0.5 km/h SE 1012.7 hPa 0 mm
18 septembre 00:18 12.4°C 96% 1.1 km/h ESE 1013.0 hPa 0 mm
18 septembre 00:17 13.0°C 95% 0.0 km/h ESE 1012.7 hPa 0 mm
18 septembre 00:16 13.0°C 95% 1.1 km/h SE 1012.7 hPa 0 mm
18 septembre 00:16 12.3°C 96% 0.0 km/h ESE 1013.0 hPa 0 mm
18 septembre 00:15 13.0°C 95% 1.1 km/h ESE 1012.7 hPa 0 mm
18 septembre 00:14 13.0°C 95% 1.1 km/h ESE 1012.7 hPa 0 mm
18 septembre 00:13 13.0°C 95% 0.5 km/h SE 1012.7 hPa 0 mm
18 septembre 00:12 13.0°C 95% 0.5 km/h SE 1012.7 hPa 0 mm
18 septembre 00:11 13.0°C 95% 0.5 km/h SE 1012.7 hPa 0 mm
18 septembre 00:10 13.0°C 95% 0.0 km/h E 1012.6 hPa 0 mm
18 septembre 00:09 13.1°C 95% 0.5 km/h ESE 1012.7 hPa 0 mm
18 septembre 00:08 13.1°C 95% 1.6 km/h SSE 1012.7 hPa 0 mm
18 septembre 00:07 13.1°C 95% 2.1 km/h SE 1012.7 hPa 0 mm
18 septembre 00:06 13.1°C 95% 2.1 km/h S 1012.7 hPa 0 mm
18 septembre 00:05 13.0°C 94% 0.0 km/h SSE 1012.7 hPa 0 mm
18 septembre 00:04 13.1°C 95% 0.0 km/h S 1012.7 hPa 0 mm
18 septembre 00:03 13.1°C 94% 0.0 km/h S 1012.7 hPa 0 mm
18 septembre 00:02 13.2°C 95% 0.0 km/h SE 1012.6 hPa 0 mm
18 septembre 00:01 13.2°C 94% 0.0 km/h ESE 1012.6 hPa 0 mm
18 septembre 00:00 13.2°C 94% 0.0 km/h SE 1012.7 hPa 0 mm
17 septembre 23:59 13.2°C 94% 0.0 km/h SE 1012.7 hPa 0 mm
17 septembre 23:58 13.2°C 94% 0.0 km/h SSE 1012.7 hPa 0 mm
17 septembre 23:57 13.2°C 95% 1.6 km/h ESE 1012.6 hPa 0 mm
17 septembre 23:56 13.1°C 94% 2.1 km/h SSE 1012.6 hPa 0 mm
17 septembre 23:55 13.1°C 94% 2.1 km/h ESE 1012.6 hPa 0 mm
17 septembre 23:54 13.2°C 94% 2.1 km/h S 1012.7 hPa 0 mm
17 septembre 23:53 13.2°C 94% 2.1 km/h S 1012.7 hPa 0 mm
17 septembre 23:52 13.2°C 94% 1.6 km/h SE 1012.7 hPa 0 mm
17 septembre 23:51 13.2°C 94% 1.6 km/h ESE 1012.7 hPa 0 mm
17 septembre 23:50 13.2°C 94% 1.1 km/h ESE 1012.7 hPa 0 mm
17 septembre 23:49 13.3°C 94% 1.1 km/h ESE 1012.7 hPa 0 mm
17 septembre 23:48 13.4°C 94% 0.0 km/h E 1012.6 hPa 0 mm
17 septembre 23:47 13.2°C 94% 0.5 km/h ESE 1012.6 hPa 0 mm
17 septembre 23:46 13.3°C 94% 0.0 km/h ESE 1012.6 hPa 0 mm
17 septembre 23:45 13.3°C 94% 0.0 km/h ESE 1012.6 hPa 0 mm
17 septembre 23:44 13.3°C 94% 0.5 km/h SE 1012.6 hPa 0 mm
17 septembre 23:43 13.4°C 94% 1.1 km/h SE 1012.6 hPa 0 mm
17 septembre 23:42 13.4°C 94% 1.6 km/h ESE 1012.6 hPa 0 mm
17 septembre 23:41 13.4°C 94% 1.1 km/h SE 1012.6 hPa 0 mm
17 septembre 23:40 13.4°C 94% 0.5 km/h SE 1012.6 hPa 0 mm
17 septembre 23:39 13.4°C 94% 2.1 km/h S 1012.6 hPa 0 mm
17 septembre 23:38 13.6°C 94% 0.0 km/h SE 1012.7 hPa 0 mm
17 septembre 23:37 13.5°C 94% 0.0 km/h ESE 1012.6 hPa 0 mm
17 septembre 23:36 13.3°C 94% 0.0 km/h SE 1012.6 hPa 0 mm
17 septembre 23:35 13.3°C 94% 0.0 km/h SE 1012.6 hPa 0 mm
17 septembre 23:34 13.3°C 94% 0.0 km/h S 1012.6 hPa 0 mm
17 septembre 23:33 13.4°C 94% 0.0 km/h SE 1012.6 hPa 0 mm
17 septembre 23:32 13.5°C 94% 0.0 km/h SSO 1012.6 hPa 0 mm
17 septembre 23:31 13.5°C 94% 0.0 km/h SE 1012.6 hPa 0 mm
17 septembre 23:30 13.5°C 94% 0.0 km/h SSO 1012.6 hPa 0 mm
17 septembre 23:29 13.6°C 94% 0.0 km/h SSE 1012.6 hPa 0 mm
17 septembre 23:28 13.6°C 94% 0.0 km/h SSE 1012.6 hPa 0 mm
17 septembre 23:27 13.5°C 94% 0.0 km/h SE 1012.6 hPa 0 mm
17 septembre 23:26 13.6°C 94% 0.0 km/h SE 1012.6 hPa 0 mm
17 septembre 23:25 13.6°C 94% 0.0 km/h SE 1012.6 hPa 0 mm
17 septembre 23:24 13.6°C 94% 0.0 km/h ESE 1012.6 hPa 0 mm
17 septembre 23:23 13.6°C 94% 0.0 km/h SE 1012.6 hPa 0 mm
17 septembre 23:22 13.7°C 94% 0.0 km/h SE 1012.6 hPa 0 mm
17 septembre 23:21 13.8°C 94% 0.0 km/h SE 1012.6 hPa 0 mm
17 septembre 23:20 13.6°C 94% 0.0 km/h SSE 1012.6 hPa 0 mm
17 septembre 23:19 13.6°C 94% 0.0 km/h SE 1012.5 hPa 0 mm
17 septembre 23:18 13.6°C 94% 0.0 km/h SE 1012.5 hPa 0 mm
17 septembre 23:17 13.6°C 94% 0.0 km/h SE 1012.5 hPa 0 mm
17 septembre 23:16 13.6°C 94% 0.0 km/h S 1012.5 hPa 0 mm
17 septembre 23:15 13.7°C 94% 0.0 km/h S 1012.5 hPa 0 mm
17 septembre 23:14 13.7°C 94% 0.0 km/h SE 1012.5 hPa 0 mm
17 septembre 23:13 13.6°C 94% 0.0 km/h ESE 1012.5 hPa 0 mm
17 septembre 23:12 13.6°C 94% 0.0 km/h SSO 1012.5 hPa 0 mm
17 septembre 23:11 13.7°C 94% 0.0 km/h SSE 1012.5 hPa 0 mm
17 septembre 23:10 13.6°C 94% 0.0 km/h SE 1012.4 hPa 0 mm
17 septembre 23:09 13.6°C 94% 0.0 km/h SE 1012.4 hPa 0 mm
17 septembre 23:08 13.7°C 94% 0.0 km/h E 1012.4 hPa 0 mm
17 septembre 23:07 13.7°C 94% 2.1 km/h ESE 1012.4 hPa 0 mm
17 septembre 23:06 13.7°C 94% 1.6 km/h SE 1012.4 hPa 0 mm
17 septembre 23:05 13.8°C 94% 1.1 km/h E 1012.4 hPa 0 mm
17 septembre 23:04 13.8°C 93% 1.6 km/h SSE 1012.4 hPa 0 mm
17 septembre 23:03 13.9°C 94% 2.6 km/h SE 1012.5 hPa 0 mm
17 septembre 23:02 13.8°C 93% 1.6 km/h SE 1012.4 hPa 0 mm
17 septembre 23:01 13.8°C 93% 2.6 km/h S 1012.5 hPa 0 mm
17 septembre 23:00 13.8°C 93% 2.6 km/h SSE 1012.4 hPa 0 mm
17 septembre 22:59 13.7°C 93% 2.1 km/h S 1012.4 hPa 0 mm
17 septembre 22:58 13.8°C 93% 2.6 km/h S 1012.5 hPa 0 mm
17 septembre 22:57 13.7°C 93% 2.6 km/h S 1012.4 hPa 0 mm
17 septembre 22:56 13.9°C 93% 2.6 km/h S 1012.4 hPa 0 mm
17 septembre 22:55 13.9°C 93% 2.6 km/h SSE 1012.5 hPa 0 mm
17 septembre 22:54 14.0°C 93% 2.6 km/h SSO 1012.4 hPa 0 mm
17 septembre 22:53 14.0°C 93% 2.1 km/h SE 1012.5 hPa 0 mm
17 septembre 22:52 14.1°C 93% 1.6 km/h S 1012.4 hPa 0 mm
17 septembre 22:51 14.1°C 93% 1.6 km/h S 1012.5 hPa 0 mm
17 septembre 22:50 14.2°C 93% 2.1 km/h SE 1012.4 hPa 0 mm
17 septembre 22:49 14.2°C 93% 2.1 km/h ESE 1012.4 hPa 0 mm
17 septembre 22:48 14.2°C 93% 2.1 km/h SE 1012.4 hPa 0 mm
17 septembre 22:47 14.2°C 93% 2.1 km/h E 1012.5 hPa 0 mm
17 septembre 22:46 14.2°C 93% 2.6 km/h SE 1012.5 hPa 0 mm
17 septembre 22:45 14.2°C 93% 2.1 km/h SE 1012.5 hPa 0 mm
17 septembre 22:44 14.2°C 93% 1.6 km/h SSE 1012.4 hPa 0 mm
17 septembre 22:43 14.2°C 94% 1.6 km/h ESE 1012.4 hPa 0 mm
17 septembre 22:42 14.1°C 94% 1.1 km/h E 1012.4 hPa 0 mm
17 septembre 22:41 14.0°C 93% 1.6 km/h SE 1012.4 hPa 0 mm
17 septembre 22:40 14.1°C 93% 1.6 km/h SE 1012.4 hPa 0 mm
17 septembre 22:39 14.1°C 93% 1.6 km/h ESE 1012.4 hPa 0 mm
17 septembre 22:38 14.1°C 93% 2.6 km/h SE 1012.4 hPa 0 mm
17 septembre 22:37 14.1°C 93% 2.6 km/h SSE 1012.4 hPa 0 mm
17 septembre 22:36 14.0°C 93% 3.2 km/h SE 1012.4 hPa 0 mm
17 septembre 22:35 14.1°C 93% 2.1 km/h SSE 1012.4 hPa 0 mm
17 septembre 22:34 14.1°C 94% 2.1 km/h SE 1012.4 hPa 0 mm
17 septembre 22:33 14.1°C 94% 2.6 km/h SSE 1012.4 hPa 0 mm
17 septembre 22:32 14.0°C 93% 2.6 km/h S 1012.4 hPa 0 mm
17 septembre 22:31 14.1°C 93% 2.1 km/h SSE 1012.4 hPa 0 mm
17 septembre 22:30 14.1°C 94% 3.2 km/h SE 1012.4 hPa 0 mm
17 septembre 22:29 14.0°C 94% 3.7 km/h SE 1012.4 hPa 0 mm
17 septembre 22:28 13.9°C 94% 4.2 km/h SE 1012.4 hPa 0 mm
17 septembre 22:27 13.9°C 94% 3.2 km/h S 1012.4 hPa 0 mm
17 septembre 22:26 13.9°C 94% 2.1 km/h ESE 1012.4 hPa 0 mm
17 septembre 22:25 13.9°C 94% 2.6 km/h SE 1012.3 hPa 0 mm
17 septembre 22:24 13.9°C 94% 2.6 km/h S 1012.3 hPa 0 mm
17 septembre 22:23 13.8°C 94% 2.6 km/h S 1012.3 hPa 0 mm
17 septembre 22:22 13.8°C 94% 3.2 km/h SSO 1012.3 hPa 0 mm
17 septembre 22:21 13.8°C 94% 3.2 km/h SE 1012.3 hPa 0 mm
17 septembre 22:20 13.9°C 93% 3.2 km/h SSO 1012.3 hPa 0 mm
17 septembre 22:19 13.9°C 93% 3.2 km/h SSO 1012.4 hPa 0 mm
17 septembre 22:18 14.0°C 94% 3.2 km/h SSE 1012.3 hPa 0 mm
17 septembre 22:17 13.9°C 94% 3.7 km/h SSO 1012.3 hPa 0 mm
17 septembre 22:16 13.9°C 94% 3.7 km/h SSO 1012.3 hPa 0 mm
17 septembre 22:15 13.9°C 93% 4.2 km/h S 1012.3 hPa 0 mm
17 septembre 22:14 13.8°C 93% 2.6 km/h SE 1012.3 hPa 0 mm
17 septembre 22:13 13.8°C 93% 2.6 km/h SE 1012.4 hPa 0 mm
17 septembre 22:13 13.8°C 93% 2.1 km/h S 1012.3 hPa 0 mm
17 septembre 22:12 13.8°C 93% 2.1 km/h S 1012.4 hPa 0 mm
17 septembre 22:11 13.8°C 93% 2.1 km/h E 1012.4 hPa 0 mm
17 septembre 22:10 13.8°C 93% 2.1 km/h S 1012.4 hPa 0 mm
17 septembre 22:09 13.8°C 93% 2.6 km/h SSE 1012.4 hPa 0 mm
17 septembre 22:08 13.8°C 93% 2.1 km/h SSO 1012.4 hPa 0 mm
17 septembre 22:07 13.9°C 93% 1.6 km/h SE 1012.4 hPa 0 mm
17 septembre 22:06 13.9°C 93% 2.1 km/h SSE 1012.4 hPa 0 mm
17 septembre 22:05 14.0°C 93% 2.6 km/h SO 1012.3 hPa 0 mm
17 septembre 22:04 14.0°C 93% 2.1 km/h S 1012.4 hPa 0 mm
17 septembre 22:03 14.0°C 93% 2.6 km/h SSO 1012.4 hPa 0 mm
17 septembre 22:02 14.0°C 93% 1.6 km/h SE 1012.4 hPa 0 mm
17 septembre 22:01 14.1°C 93% 1.6 km/h ESE 1012.4 hPa 0 mm
17 septembre 22:00 14.1°C 93% 1.6 km/h SSE 1012.4 hPa 0 mm
17 septembre 21:59 14.1°C 93% 1.1 km/h SE 1012.4 hPa 0 mm
17 septembre 21:58 14.0°C 93% 1.6 km/h SSE 1012.4 hPa 0 mm
17 septembre 21:57 14.0°C 93% 2.1 km/h SE 1012.4 hPa 0 mm
17 septembre 21:56 14.1°C 93% 1.6 km/h SSE 1012.4 hPa 0 mm
17 septembre 21:55 14.1°C 93% 1.6 km/h E 1012.4 hPa 0 mm
17 septembre 21:54 14.1°C 93% 1.6 km/h ESE 1012.4 hPa 0 mm
17 septembre 21:53 14.1°C 93% 1.6 km/h E 1012.5 hPa 0 mm
17 septembre 21:52 14.0°C 93% 1.6 km/h SE 1012.4 hPa 0 mm
17 septembre 21:51 14.0°C 93% 2.1 km/h SE 1012.4 hPa 0 mm
17 septembre 21:50 14.0°C 93% 1.6 km/h SE 1012.4 hPa 0 mm
17 septembre 21:49 14.1°C 93% 1.6 km/h S 1012.4 hPa 0 mm
17 septembre 21:48 14.1°C 93% 1.6 km/h E 1012.4 hPa 0 mm
17 septembre 21:47 14.1°C 93% 1.6 km/h ESE 1012.4 hPa 0 mm
17 septembre 21:46 14.1°C 93% 1.1 km/h ESE 1012.4 hPa 0 mm
17 septembre 21:45 14.1°C 93% 1.1 km/h SE 1012.5 hPa 0 mm
17 septembre 21:44 14.1°C 93% 0.5 km/h ESE 1012.4 hPa 0 mm
17 septembre 21:43 14.2°C 93% 1.1 km/h SE 1012.4 hPa 0 mm
17 septembre 21:42 14.2°C 93% 1.6 km/h E 1012.4 hPa 0 mm
17 septembre 21:41 14.2°C 92% 2.1 km/h SE 1012.5 hPa 0 mm
17 septembre 21:40 14.2°C 92% 2.1 km/h E 1012.5 hPa 0 mm
17 septembre 21:39 14.2°C 92% 1.6 km/h SSE 1012.5 hPa 0 mm
17 septembre 21:38 14.3°C 92% 1.6 km/h SE 1012.4 hPa 0 mm
17 septembre 21:37 14.3°C 92% 1.1 km/h ESE 1012.5 hPa 0 mm
17 septembre 21:36 14.4°C 92% 1.1 km/h SE 1012.5 hPa 0 mm
17 septembre 21:35 14.4°C 92% 1.1 km/h SE 1012.5 hPa 0 mm
17 septembre 21:34 14.4°C 92% 1.1 km/h SE 1012.5 hPa 0 mm
17 septembre 21:33 14.3°C 92% 2.1 km/h SE 1012.5 hPa 0 mm
17 septembre 21:32 14.3°C 92% 1.6 km/h E 1012.4 hPa 0 mm
17 septembre 21:31 14.4°C 92% 1.1 km/h ESE 1012.4 hPa 0 mm
17 septembre 21:30 14.4°C 92% 1.1 km/h SE 1012.4 hPa 0 mm
17 septembre 21:29 14.4°C 92% 1.1 km/h SE 1012.4 hPa 0 mm
17 septembre 21:28 14.5°C 92% 1.6 km/h SE 1012.3 hPa 0 mm
17 septembre 21:27 14.4°C 92% 1.6 km/h E 1012.3 hPa 0 mm
17 septembre 21:26 14.4°C 92% 0.5 km/h SE 1012.3 hPa 0 mm
17 septembre 21:25 14.4°C 92% 1.1 km/h ESE 1012.3 hPa 0 mm
17 septembre 21:24 14.5°C 92% 1.6 km/h ESE 1012.3 hPa 0 mm
17 septembre 21:23 14.4°C 92% 0.5 km/h ESE 1012.3 hPa 0 mm
17 septembre 21:22 14.4°C 92% 1.6 km/h SE 1012.3 hPa 0 mm
17 septembre 21:21 14.5°C 92% 2.1 km/h SE 1012.3 hPa 0 mm
17 septembre 21:20 14.5°C 92% 2.1 km/h E 1012.3 hPa 0 mm
17 septembre 21:19 14.5°C 92% 2.1 km/h SE 1012.3 hPa 0 mm
17 septembre 21:18 14.6°C 92% 2.6 km/h ESE 1012.2 hPa 0 mm
17 septembre 21:17 14.5°C 92% 2.6 km/h SSO 1012.3 hPa 0 mm
17 septembre 21:16 14.5°C 92% 2.1 km/h SSE 1012.2 hPa 0 mm
17 septembre 21:15 14.5°C 91% 2.6 km/h S 1012.2 hPa 0 mm
17 septembre 21:14 14.6°C 91% 2.6 km/h SSE 1012.2 hPa 0 mm
17 septembre 21:13 14.6°C 91% 3.2 km/h S 1012.2 hPa 0 mm
17 septembre 21:12 14.7°C 91% 2.1 km/h S 1012.2 hPa 0 mm
17 septembre 21:11 14.7°C 91% 2.1 km/h S 1012.1 hPa 0 mm
17 septembre 21:10 14.7°C 91% 2.1 km/h SE 1012.1 hPa 0 mm
17 septembre 21:09 14.7°C 91% 1.6 km/h ESE 1012.2 hPa 0 mm
17 septembre 21:08 14.7°C 91% 2.6 km/h SSE 1012.2 hPa 0 mm
17 septembre 21:07 14.8°C 91% 2.1 km/h S 1012.2 hPa 0 mm
17 septembre 21:06 14.8°C 91% 1.6 km/h SSE 1012.2 hPa 0 mm
17 septembre 21:05 14.8°C 91% 1.6 km/h SSE 1012.1 hPa 0 mm
17 septembre 21:04 14.8°C 91% 1.1 km/h E 1012.1 hPa 0 mm
17 septembre 21:03 14.8°C 91% 1.1 km/h E 1012.1 hPa 0 mm
17 septembre 21:02 14.8°C 91% 1.1 km/h SE 1012.1 hPa 0 mm
17 septembre 21:01 14.9°C 91% 1.1 km/h ESE 1012.1 hPa 0 mm
17 septembre 21:00 14.9°C 90% 2.1 km/h SSE 1012.1 hPa 0 mm
17 septembre 20:59 14.9°C 90% 1.6 km/h SE 1012.1 hPa 0 mm
17 septembre 20:58 15.0°C 90% 1.6 km/h SE 1012.0 hPa 0 mm
17 septembre 20:57 15.0°C 90% 1.6 km/h SE 1012.0 hPa 0 mm
17 septembre 20:56 15.1°C 90% 1.6 km/h SE 1012.0 hPa 0 mm
17 septembre 20:55 15.1°C 90% 1.6 km/h SSE 1012.0 hPa 0 mm
17 septembre 20:54 15.2°C 90% 1.6 km/h SE 1012.0 hPa 0 mm
17 septembre 20:53 15.2°C 90% 1.1 km/h SE 1012.0 hPa 0 mm
17 septembre 20:52 15.2°C 90% 1.1 km/h SE 1012.0 hPa 0 mm
17 septembre 20:51 15.3°C 90% 1.1 km/h E 1011.9 hPa 0 mm
17 septembre 20:50 15.3°C 90% 1.1 km/h E 1011.9 hPa 0 mm
17 septembre 20:49 15.3°C 90% 1.1 km/h SE 1011.9 hPa 0 mm
17 septembre 20:48 15.3°C 90% 1.6 km/h SE 1011.9 hPa 0 mm
17 septembre 20:47 15.4°C 89% 1.6 km/h ESE 1011.9 hPa 0 mm
17 septembre 20:46 15.4°C 89% 1.6 km/h E 1011.9 hPa 0 mm
17 septembre 20:45 15.5°C 89% 1.1 km/h SSE 1011.8 hPa 0 mm
17 septembre 20:44 15.6°C 89% 1.1 km/h ESE 1011.8 hPa 0 mm
17 septembre 20:43 15.7°C 89% 0.5 km/h ESE 1011.8 hPa 0 mm
17 septembre 20:42 15.7°C 88% 0.5 km/h ESE 1011.8 hPa 0 mm
17 septembre 20:41 15.7°C 88% 0.5 km/h ESE 1011.8 hPa 0 mm
17 septembre 20:40 15.8°C 88% 0.5 km/h SE 1011.8 hPa 0 mm
17 septembre 20:39 16.0°C 88% 0.0 km/h SE 1011.8 hPa 0 mm
17 septembre 20:38 16.1°C 88% 0.5 km/h ESE 1011.8 hPa 0 mm
17 septembre 20:37 16.2°C 88% 1.1 km/h SE 1011.8 hPa 0 mm
17 septembre 20:36 16.3°C 87% 1.1 km/h ESE 1011.8 hPa 0 mm
17 septembre 20:35 16.3°C 87% 1.6 km/h SE 1011.8 hPa 0 mm
17 septembre 20:34 16.3°C 87% 1.6 km/h ESE 1011.8 hPa 0 mm
17 septembre 20:33 16.2°C 87% 1.6 km/h ESE 1011.8 hPa 0 mm
17 septembre 20:32 16.2°C 87% 1.1 km/h SE 1011.8 hPa 0 mm
17 septembre 20:31 16.1°C 87% 1.6 km/h SE 1011.8 hPa 0 mm
17 septembre 20:30 16.1°C 87% 2.1 km/h SE 1011.8 hPa 0 mm
17 septembre 20:29 16.1°C 87% 1.1 km/h SE 1011.8 hPa 0 mm
17 septembre 20:28 16.2°C 87% 1.1 km/h ESE 1011.8 hPa 0 mm
17 septembre 20:27 16.2°C 87% 1.1 km/h ENE 1011.8 hPa 0 mm
17 septembre 20:26 16.3°C 87% 0.5 km/h SSE 1011.8 hPa 0 mm
17 septembre 20:25 16.4°C 86% 1.6 km/h SE 1011.8 hPa 0 mm
17 septembre 20:24 16.6°C 86% 1.1 km/h ESE 1011.8 hPa 0 mm
17 septembre 20:23 16.8°C 86% 0.5 km/h ESE 1011.8 hPa 0 mm
17 septembre 20:22 16.8°C 85% 1.6 km/h ESE 1011.7 hPa 0 mm
17 septembre 20:21 16.9°C 84% 1.1 km/h ESE 1011.7 hPa 0 mm
17 septembre 20:20 16.8°C 85% 1.6 km/h ESE 1011.7 hPa 0 mm
17 septembre 20:19 16.8°C 85% 1.6 km/h ESE 1011.7 hPa 0 mm
17 septembre 20:18 16.7°C 87% 2.1 km/h SE 1011.6 hPa 0 mm
17 septembre 20:17 16.6°C 87% 1.6 km/h SE 1011.6 hPa 0 mm
17 septembre 20:16 16.4°C 87% 1.1 km/h E 1011.6 hPa 0 mm
17 septembre 20:15 16.4°C 87% 1.6 km/h SE 1011.6 hPa 0 mm
17 septembre 20:14 16.4°C 87% 1.1 km/h SE 1011.6 hPa 0 mm
17 septembre 20:13 16.4°C 87% 1.1 km/h ESE 1011.6 hPa 0 mm
17 septembre 20:12 16.2°C 87% 1.1 km/h SE 1011.6 hPa 0 mm
17 septembre 20:11 16.3°C 87% 1.1 km/h SE 1011.6 hPa 0 mm
17 septembre 20:10 16.3°C 86% 1.6 km/h SE 1011.6 hPa 0 mm
17 septembre 20:09 16.4°C 86% 2.1 km/h SE 1011.6 hPa 0 mm
17 septembre 20:08 16.4°C 86% 1.6 km/h ESE 1011.6 hPa 0 mm
17 septembre 20:07 16.5°C 86% 2.1 km/h SE 1011.6 hPa 0 mm
17 septembre 20:06 16.6°C 86% 2.1 km/h SSO 1011.6 hPa 0 mm
17 septembre 20:05 16.7°C 85% 2.1 km/h SSO 1011.6 hPa 0 mm
17 septembre 20:04 16.8°C 85% 2.1 km/h SSE 1011.6 hPa 0 mm
17 septembre 20:03 16.8°C 85% 1.6 km/h SE 1011.6 hPa 0 mm
17 septembre 20:02 16.9°C 85% 0.0 km/h SE 1011.6 hPa 0 mm
17 septembre 20:01 17.0°C 85% 0.0 km/h SE 1011.5 hPa 0 mm
17 septembre 20:00 17.0°C 85% 0.0 km/h SE 1011.5 hPa 0 mm
17 septembre 19:59 17.1°C 85% 0.0 km/h SE 1011.5 hPa 0 mm
17 septembre 19:58 17.1°C 85% 0.5 km/h SE 1011.5 hPa 0 mm
17 septembre 19:57 17.1°C 85% 1.1 km/h SE 1011.5 hPa 0 mm
17 septembre 19:56 17.2°C 84% 0.5 km/h ESE 1011.5 hPa 0 mm
17 septembre 19:55 17.3°C 84% 1.1 km/h ESE 1011.4 hPa 0 mm
17 septembre 19:54 17.4°C 83% 0.0 km/h ESE 1011.4 hPa 0 mm
17 septembre 19:53 17.5°C 83% 0.0 km/h E 1011.4 hPa 0 mm
17 septembre 19:52 17.5°C 83% 0.0 km/h E 1011.4 hPa 0 mm
17 septembre 19:51 17.7°C 83% 0.0 km/h E 1011.4 hPa 0 mm
17 septembre 19:50 17.8°C 82% 0.0 km/h E 1011.4 hPa 0 mm
17 septembre 19:49 17.9°C 82% 0.0 km/h E 1011.4 hPa 0 mm
17 septembre 19:48 18.1°C 81% 0.0 km/h E 1011.4 hPa 0 mm
17 septembre 19:47 18.2°C 81% 0.0 km/h E 1011.4 hPa 0 mm
17 septembre 19:46 18.3°C 79% 0.5 km/h E 1011.4 hPa 0 mm
17 septembre 19:45 18.6°C 79% 1.1 km/h ENE 1011.5 hPa 0 mm
17 septembre 19:44 18.6°C 79% 0.5 km/h ENE 1011.4 hPa 0 mm
17 septembre 19:43 18.7°C 79% 1.1 km/h ENE 1011.4 hPa 0 mm
17 septembre 19:42 18.8°C 78% 0.5 km/h E 1011.4 hPa 0 mm
17 septembre 19:41 18.9°C 76% 1.1 km/h ENE 1011.4 hPa 0 mm
17 septembre 19:40 19.1°C 75% 0.0 km/h NE 1011.5 hPa 0 mm
17 septembre 19:39 19.2°C 75% 1.1 km/h NE 1011.4 hPa 0 mm
17 septembre 19:38 19.3°C 74% 1.6 km/h NE 1011.5 hPa 0 mm
17 septembre 19:37 19.4°C 73% 1.1 km/h E 1011.6 hPa 0 mm
17 septembre 19:36 19.5°C 72% 1.6 km/h E 1011.6 hPa 0 mm
17 septembre 19:35 19.6°C 72% 1.6 km/h ENE 1011.6 hPa 0 mm
17 septembre 19:34 19.7°C 72% 2.1 km/h ENE 1011.5 hPa 0 mm
17 septembre 19:33 19.7°C 72% 2.1 km/h NE 1011.5 hPa 0 mm
17 septembre 19:32 19.7°C 72% 2.1 km/h ENE 1011.4 hPa 0 mm
17 septembre 19:31 19.7°C 71% 2.1 km/h NE 1011.5 hPa 0 mm
17 septembre 19:30 19.8°C 72% 2.1 km/h NE 1011.5 hPa 0 mm
17 septembre 19:29 19.8°C 71% 1.6 km/h ENE 1011.5 hPa 0 mm
17 septembre 19:28 19.9°C 71% 1.1 km/h ENE 1011.5 hPa 0 mm
17 septembre 19:27 19.9°C 71% 2.6 km/h NE 1011.5 hPa 0 mm
17 septembre 19:26 20.0°C 71% 2.1 km/h NE 1011.6 hPa 0 mm
17 septembre 19:25 20.0°C 71% 2.1 km/h NE 1011.6 hPa 0 mm
17 septembre 19:24 20.1°C 70% 2.1 km/h NE 1011.5 hPa 0 mm
17 septembre 19:23 20.2°C 70% 2.1 km/h ENE 1011.5 hPa 0 mm
17 septembre 19:22 20.2°C 70% 2.1 km/h NE 1011.5 hPa 0 mm
17 septembre 19:21 20.2°C 70% 2.6 km/h NE 1011.5 hPa 0 mm
17 septembre 19:20 20.3°C 70% 3.2 km/h NE 1011.4 hPa 0 mm
17 septembre 19:19 20.3°C 70% 3.2 km/h ENE 1011.5 hPa 0 mm
17 septembre 19:18 20.4°C 69% 3.7 km/h NE 1011.5 hPa 0 mm
17 septembre 19:17 20.4°C 69% 4.2 km/h NE 1011.5 hPa 0 mm
17 septembre 19:16 20.5°C 69% 3.2 km/h NE 1011.5 hPa 0 mm
17 septembre 19:15 20.5°C 69% 3.2 km/h NE 1011.5 hPa 0 mm
17 septembre 19:14 20.6°C 69% 2.6 km/h ENE 1011.5 hPa 0 mm
17 septembre 19:13 20.6°C 69% 2.6 km/h NE 1011.5 hPa 0 mm
17 septembre 19:12 20.7°C 69% 3.2 km/h NE 1011.5 hPa 0 mm
17 septembre 19:11 20.7°C 69% 3.7 km/h NE 1011.4 hPa 0 mm
17 septembre 19:10 20.7°C 69% 5.3 km/h NE 1011.4 hPa 0 mm
17 septembre 19:09 20.8°C 69% 4.8 km/h NE 1011.4 hPa 0 mm
17 septembre 19:08 20.8°C 69% 4.2 km/h NE 1011.4 hPa 0 mm
17 septembre 19:07 20.9°C 68% 3.7 km/h NE 1011.4 hPa 0 mm
17 septembre 19:06 21.0°C 68% 2.6 km/h NE 1011.4 hPa 0 mm
17 septembre 19:05 21.0°C 68% 2.6 km/h NE 1011.4 hPa 0 mm
17 septembre 19:04 21.0°C 68% 2.6 km/h NE 1011.4 hPa 0 mm
17 septembre 19:03 21.0°C 68% 2.6 km/h NE 1011.4 hPa 0 mm
17 septembre 19:02 21.1°C 68% 3.2 km/h NE 1011.4 hPa 0 mm
17 septembre 19:01 21.1°C 68% 3.2 km/h NE 1011.4 hPa 0 mm
17 septembre 19:00 21.1°C 68% 4.8 km/h NE 1011.4 hPa 0 mm
17 septembre 18:59 21.2°C 68% 4.8 km/h NE 1011.4 hPa 0 mm
17 septembre 18:58 21.2°C 67% 4.8 km/h NE 1011.4 hPa 0 mm
17 septembre 18:57 21.3°C 67% 4.8 km/h NE 1011.4 hPa 0 mm
17 septembre 18:56 21.4°C 67% 3.7 km/h NNE 1011.4 hPa 0 mm
17 septembre 18:55 21.4°C 67% 4.2 km/h NE 1011.4 hPa 0 mm
17 septembre 18:54 21.4°C 66% 3.2 km/h NE 1011.4 hPa 0 mm
17 septembre 18:53 21.4°C 66% 2.6 km/h NE 1011.4 hPa 0 mm
17 septembre 18:52 21.5°C 66% 4.2 km/h NNE 1011.4 hPa 0 mm
17 septembre 18:51 21.6°C 66% 4.8 km/h NE 1011.4 hPa 0 mm
17 septembre 18:50 21.6°C 66% 4.2 km/h NNE 1011.4 hPa 0 mm
17 septembre 18:49 21.6°C 66% 5.8 km/h NE 1011.4 hPa 0 mm
17 septembre 18:48 21.7°C 65% 5.3 km/h NNE 1011.4 hPa 0 mm
17 septembre 18:47 21.7°C 65% 5.8 km/h NNE 1011.4 hPa 0 mm
17 septembre 18:46 21.8°C 67% 5.3 km/h NNE 1011.4 hPa 0 mm
17 septembre 18:45 21.8°C 67% 4.2 km/h NE 1011.4 hPa 0 mm
17 septembre 18:44 21.8°C 66% 3.7 km/h NE 1011.4 hPa 0 mm
17 septembre 18:43 21.8°C 65% 3.7 km/h NE 1011.4 hPa 0 mm
17 septembre 18:42 21.9°C 65% 2.6 km/h NE 1011.4 hPa 0 mm
17 septembre 18:41 21.9°C 65% 3.7 km/h NNE 1011.4 hPa 0 mm
17 septembre 18:40 21.9°C 65% 4.2 km/h NNE 1011.4 hPa 0 mm
17 septembre 18:39 21.9°C 65% 5.3 km/h NE 1011.4 hPa 0 mm
17 septembre 18:38 22.0°C 65% 4.2 km/h NNE 1011.4 hPa 0 mm
17 septembre 18:37 22.0°C 65% 3.7 km/h NE 1011.4 hPa 0 mm
17 septembre 18:36 22.0°C 65% 4.2 km/h NE 1011.4 hPa 0 mm
17 septembre 18:35 22.1°C 65% 3.2 km/h NNE 1011.4 hPa 0 mm
17 septembre 18:34 22.1°C 65% 3.2 km/h NNE 1011.4 hPa 0 mm
17 septembre 18:33 22.1°C 65% 3.2 km/h NNE 1011.4 hPa 0 mm
17 septembre 18:32 22.1°C 65% 2.6 km/h NNE 1011.4 hPa 0 mm
17 septembre 18:31 22.1°C 65% 4.2 km/h NE 1011.4 hPa 0 mm
17 septembre 18:30 22.0°C 64% 4.8 km/h NNE 1011.4 hPa 0 mm
17 septembre 18:29 22.1°C 63% 6.3 km/h NNE 1011.4 hPa 0 mm
17 septembre 18:28 22.1°C 63% 5.8 km/h NNE 1011.4 hPa 0 mm
17 septembre 18:27 22.1°C 63% 6.9 km/h NE 1011.5 hPa 0 mm
17 septembre 18:26 22.1°C 62% 4.8 km/h NNE 1011.5 hPa 0 mm
17 septembre 18:25 22.1°C 64% 4.8 km/h NE 1011.5 hPa 0 mm
17 septembre 18:24 22.1°C 64% 4.8 km/h NE 1011.5 hPa 0 mm
17 septembre 18:23 22.1°C 64% 3.2 km/h NE 1011.5 hPa 0 mm
17 septembre 18:22 22.1°C 64% 5.3 km/h NNE 1011.5 hPa 0 mm
17 septembre 18:21 22.1°C 64% 4.2 km/h NE 1011.5 hPa 0 mm
17 septembre 18:20 22.1°C 63% 5.8 km/h NNE 1011.5 hPa 0 mm
17 septembre 18:19 22.2°C 64% 6.3 km/h NNE 1011.5 hPa 0 mm
17 septembre 18:18 22.2°C 64% 3.7 km/h NE 1011.5 hPa 0 mm
17 septembre 18:17 22.2°C 64% 3.7 km/h NE 1011.5 hPa 0 mm
17 septembre 18:16 22.2°C 64% 3.7 km/h NNE 1011.5 hPa 0 mm
17 septembre 18:15 22.2°C 65% 3.2 km/h ENE 1011.5 hPa 0 mm
17 septembre 18:14 22.2°C 64% 6.3 km/h NE 1011.5 hPa 0 mm
17 septembre 18:13 22.2°C 64% 5.3 km/h ENE 1011.5 hPa 0 mm
17 septembre 18:12 22.2°C 64% 5.3 km/h NE 1011.6 hPa 0 mm
17 septembre 18:11 22.2°C 64% 5.3 km/h NNE 1011.6 hPa 0 mm
17 septembre 18:10 22.3°C 64% 6.3 km/h NE 1011.6 hPa 0 mm
17 septembre 18:09 22.3°C 65% 6.9 km/h N 1011.6 hPa 0 mm
17 septembre 18:08 22.3°C 65% 4.2 km/h NE 1011.6 hPa 0 mm
17 septembre 18:07 22.3°C 65% 3.2 km/h NE 1011.6 hPa 0 mm
17 septembre 18:06 22.4°C 64% 3.7 km/h NNE 1011.6 hPa 0 mm
17 septembre 18:05 22.3°C 64% 3.2 km/h NE 1011.6 hPa 0 mm
17 septembre 18:04 22.4°C 64% 4.8 km/h NNE 1011.6 hPa 0 mm
17 septembre 18:03 22.4°C 64% 5.8 km/h NNE 1011.6 hPa 0 mm
17 septembre 18:02 22.5°C 65% 6.9 km/h E 1011.6 hPa 0 mm
17 septembre 18:01 22.5°C 64% 4.8 km/h S 1011.6 hPa 0 mm
17 septembre 18:00 22.5°C 65% 5.8 km/h SE 1011.6 hPa 0 mm
17 septembre 17:59 22.5°C 65% 5.3 km/h SE 1011.6 hPa 0 mm
17 septembre 17:58 22.5°C 65% 4.2 km/h SE 1011.6 hPa 0 mm
17 septembre 17:57 22.5°C 65% 4.2 km/h S 1011.6 hPa 0 mm
17 septembre 17:56 22.6°C 65% 4.2 km/h E 1011.6 hPa 0 mm
17 septembre 17:55 22.6°C 65% 4.8 km/h S 1011.6 hPa 0 mm
17 septembre 17:54 22.6°C 64% 3.7 km/h S 1011.6 hPa 0 mm
17 septembre 17:53 22.6°C 64% 4.2 km/h E 1011.6 hPa 0 mm
17 septembre 17:52 22.6°C 63% 6.3 km/h NE 1011.6 hPa 0 mm
17 septembre 17:51 22.7°C 63% 4.2 km/h SSE 1011.7 hPa 0 mm
17 septembre 17:50 22.8°C 63% 4.8 km/h NNE 1011.7 hPa 0 mm
17 septembre 17:49 22.7°C 63% 4.8 km/h NNE 1011.6 hPa 0 mm
17 septembre 17:48 22.8°C 64% 4.8 km/h ENE 1011.6 hPa 0 mm
17 septembre 17:47 22.7°C 64% 4.2 km/h NNE 1011.6 hPa 0 mm
17 septembre 17:46 22.7°C 65% 5.8 km/h SSE 1011.6 hPa 0 mm
17 septembre 17:45 22.6°C 64% 4.2 km/h ESE 1011.7 hPa 0 mm
17 septembre 17:44 22.6°C 64% 4.8 km/h E 1011.7 hPa 0 mm
17 septembre 17:43 22.6°C 64% 4.2 km/h ENE 1011.7 hPa 0 mm
17 septembre 17:42 22.4°C 64% 1.6 km/h E 1011.7 hPa 0 mm
17 septembre 17:41 22.4°C 63% 2.6 km/h N 1011.7 hPa 0 mm
17 septembre 17:40 22.4°C 63% 3.7 km/h NE 1011.7 hPa 0 mm
17 septembre 17:39 22.4°C 64% 6.9 km/h NE 1011.8 hPa 0 mm
17 septembre 17:38 22.5°C 63% 7.9 km/h NE 1011.7 hPa 0 mm
17 septembre 17:37 22.6°C 62% 6.3 km/h NE 1011.8 hPa 0 mm
17 septembre 17:36 22.6°C 63% 6.3 km/h NNE 1011.8 hPa 0 mm
17 septembre 17:35 22.6°C 63% 6.3 km/h NE 1011.7 hPa 0 mm
17 septembre 17:34 22.6°C 62% 3.2 km/h E 1011.8 hPa 0 mm
17 septembre 17:33 22.7°C 63% 4.8 km/h S 1011.8 hPa 0 mm
17 septembre 17:32 22.6°C 63% 3.7 km/h NE 1011.8 hPa 0 mm
17 septembre 17:31 22.7°C 63% 5.3 km/h NE 1011.8 hPa 0 mm
17 septembre 17:30 22.7°C 63% 5.8 km/h ESE 1011.8 hPa 0 mm
17 septembre 17:29 22.8°C 65% 5.8 km/h ESE 1011.8 hPa 0 mm
17 septembre 17:28 22.8°C 64% 6.9 km/h SE 1011.8 hPa 0 mm
17 septembre 17:27 22.8°C 64% 7.9 km/h SSE 1011.9 hPa 0 mm
17 septembre 17:26 22.8°C 63% 4.8 km/h E 1011.9 hPa 0 mm
17 septembre 17:25 22.9°C 63% 4.2 km/h NNE 1011.8 hPa 0 mm
17 septembre 17:24 22.9°C 63% 3.2 km/h NE 1011.9 hPa 0 mm
17 septembre 17:23 22.7°C 63% 4.2 km/h NNE 1011.8 hPa 0 mm
17 septembre 17:22 22.8°C 64% 7.4 km/h NE 1011.9 hPa 0 mm
17 septembre 17:21 22.9°C 66% 7.4 km/h SSO 1011.9 hPa 0 mm
17 septembre 17:20 22.8°C 64% 4.8 km/h SE 1011.9 hPa 0 mm
17 septembre 17:19 22.9°C 65% 6.3 km/h NE 1011.9 hPa 0 mm
17 septembre 17:18 22.9°C 65% 7.4 km/h NE 1011.9 hPa 0 mm
17 septembre 17:17 23.0°C 66% 10.0 km/h E 1011.9 hPa 0 mm
17 septembre 17:16 22.9°C 66% 5.8 km/h S 1011.9 hPa 0 mm
17 septembre 17:15 22.8°C 65% 5.3 km/h SO 1011.9 hPa 0 mm
17 septembre 17:14 22.9°C 64% 6.3 km/h ENE 1011.9 hPa 0 mm
17 septembre 17:13 22.9°C 63% 4.8 km/h NE 1011.9 hPa 0 mm
17 septembre 17:12 23.1°C 64% 3.7 km/h ENE 1011.9 hPa 0 mm
17 septembre 17:11 23.1°C 64% 4.8 km/h NE 1011.9 hPa 0 mm
17 septembre 17:10 23.1°C 65% 6.3 km/h SSE 1011.9 hPa 0 mm
17 septembre 17:09 23.1°C 66% 7.4 km/h SE 1011.9 hPa 0 mm
17 septembre 17:08 23.0°C 64% 10.0 km/h SO 1011.9 hPa 0 mm
17 septembre 17:07 23.0°C 65% 7.9 km/h SO 1011.9 hPa 0 mm
17 septembre 17:06 23.0°C 64% 7.9 km/h SE 1011.9 hPa 0 mm
17 septembre 17:05 23.0°C 64% 5.3 km/h NNE 1011.9 hPa 0 mm
17 septembre 17:04 23.0°C 63% 6.9 km/h ENE 1011.9 hPa 0 mm
17 septembre 17:03 22.9°C 63% 5.8 km/h NE 1011.9 hPa 0 mm
17 septembre 17:02 22.9°C 65% 4.2 km/h NE 1011.9 hPa 0 mm
17 septembre 17:01 23.0°C 63% 4.8 km/h ESE 1011.9 hPa 0 mm
17 septembre 17:00 23.0°C 63% 6.9 km/h SSE 1012.0 hPa 0 mm
17 septembre 16:59 23.2°C 63% 8.4 km/h SE 1012.0 hPa 0 mm
17 septembre 16:58 23.3°C 66% 6.3 km/h SE 1011.9 hPa 0 mm
17 septembre 16:57 23.2°C 66% 10.0 km/h SSE 1011.9 hPa 0 mm
17 septembre 16:56 23.1°C 64% 10.0 km/h SO 1011.9 hPa 0 mm
17 septembre 16:55 23.0°C 63% 5.3 km/h SE 1011.9 hPa 0 mm
17 septembre 16:54 22.9°C 64% 5.8 km/h SE 1012.0 hPa 0 mm
17 septembre 16:53 22.9°C 64% 6.3 km/h SE 1011.9 hPa 0 mm
17 septembre 16:52 22.8°C 65% 9.0 km/h ESE 1011.9 hPa 0 mm
17 septembre 16:51 22.8°C 65% 9.5 km/h NE 1011.9 hPa 0 mm
17 septembre 16:50 22.8°C 63% 8.4 km/h NNE 1011.9 hPa 0 mm
17 septembre 16:49 22.8°C 64% 6.3 km/h NE 1012.0 hPa 0 mm
17 septembre 16:48 23.0°C 65% 10.0 km/h NNE 1012.0 hPa 0 mm
17 septembre 16:47 23.2°C 64% 8.4 km/h NE 1012.0 hPa 0 mm
17 septembre 16:46 23.3°C 63% 7.4 km/h NE 1012.0 hPa 0 mm
17 septembre 16:45 23.3°C 63% 4.8 km/h NNE 1012.0 hPa 0 mm
17 septembre 16:44 23.4°C 65% 5.3 km/h NNE 1012.0 hPa 0 mm
17 septembre 16:43 23.3°C 63% 6.3 km/h NNE 1012.0 hPa 0 mm
17 septembre 16:42 23.3°C 63% 6.3 km/h NE 1012.0 hPa 0 mm
17 septembre 16:41 23.3°C 66% 6.9 km/h NNE 1012.0 hPa 0 mm
17 septembre 16:40 23.2°C 66% 5.3 km/h ESE 1012.0 hPa 0 mm
17 septembre 16:39 23.1°C 64% 4.8 km/h S 1012.0 hPa 0 mm
17 septembre 16:38 23.1°C 64% 4.8 km/h SE 1012.1 hPa 0 mm
17 septembre 16:37 23.1°C 64% 6.9 km/h ESE 1012.1 hPa 0 mm
17 septembre 16:36 23.2°C 66% 6.3 km/h ESE 1012.1 hPa 0 mm
17 septembre 16:35 23.0°C 64% 4.2 km/h NNE 1012.1 hPa 0 mm
17 septembre 16:34 22.9°C 65% 3.7 km/h ENE 1012.1 hPa 0 mm
17 septembre 16:33 23.0°C 66% 4.8 km/h NNE 1012.1 hPa 0 mm
17 septembre 16:32 22.9°C 66% 5.3 km/h ENE 1012.1 hPa 0 mm
17 septembre 16:31 22.9°C 66% 4.2 km/h E 1012.1 hPa 0 mm
17 septembre 16:30 22.9°C 64% 6.3 km/h E 1012.1 hPa 0 mm
17 septembre 16:29 23.1°C 65% 7.4 km/h E 1012.1 hPa 0 mm
17 septembre 16:28 23.4°C 69% 10.0 km/h NE 1012.1 hPa 0 mm
17 septembre 16:27 23.4°C 67% 5.8 km/h SSO 1012.1 hPa 0 mm
17 septembre 16:26 23.3°C 67% 8.4 km/h SE 1012.1 hPa 0 mm
17 septembre 16:25 23.4°C 67% 10.6 km/h S 1012.1 hPa 0 mm
17 septembre 16:24 23.4°C 68% 11.1 km/h ONO 1012.1 hPa 0 mm
17 septembre 16:23 23.4°C 67% 7.4 km/h OSO 1012.2 hPa 0 mm
17 septembre 16:22 23.2°C 68% 5.3 km/h O 1012.2 hPa 0 mm
17 septembre 16:21 23.1°C 65% 5.8 km/h OSO 1012.2 hPa 0 mm
17 septembre 16:20 23.1°C 67% 6.3 km/h ESE 1012.2 hPa 0 mm
17 septembre 16:19 23.0°C 65% 6.3 km/h SSO 1012.2 hPa 0 mm
17 septembre 16:18 23.0°C 65% 4.8 km/h E 1012.2 hPa 0 mm
17 septembre 16:17 23.0°C 65% 4.8 km/h NNE 1012.2 hPa 0 mm
17 septembre 16:16 23.2°C 66% 4.2 km/h NE 1012.2 hPa 0 mm
17 septembre 16:15 23.4°C 66% 6.3 km/h NE 1012.2 hPa 0 mm
17 septembre 16:14 23.3°C 69% 6.3 km/h ENE 1012.2 hPa 0 mm
17 septembre 16:13 23.2°C 67% 6.3 km/h SSO 1012.2 hPa 0 mm
17 septembre 16:12 23.2°C 66% 5.3 km/h ENE 1012.2 hPa 0 mm
17 septembre 16:11 23.1°C 66% 6.3 km/h NNE 1012.2 hPa 0 mm
17 septembre 16:10 23.1°C 66% 5.8 km/h NE 1012.2 hPa 0 mm
17 septembre 16:09 23.0°C 66% 6.9 km/h ENE 1012.2 hPa 0 mm
17 septembre 16:08 23.0°C 66% 7.4 km/h NE 1012.2 hPa 0 mm
17 septembre 16:07 23.2°C 66% 7.4 km/h NE 1012.3 hPa 0 mm
17 septembre 16:06 23.2°C 66% 4.2 km/h E 1012.3 hPa 0 mm
17 septembre 16:05 23.4°C 67% 5.3 km/h NNE 1012.3 hPa 0 mm
17 septembre 16:04 23.3°C 68% 7.4 km/h ENE 1012.3 hPa 0 mm
17 septembre 16:03 23.1°C 68% 5.8 km/h SSE 1012.2 hPa 0 mm
17 septembre 16:02 23.1°C 68% 6.3 km/h O 1012.2 hPa 0 mm
17 septembre 16:01 23.1°C 67% 5.3 km/h O 1012.2 hPa 0 mm
17 septembre 16:00 23.1°C 67% 7.4 km/h OSO 1012.3 hPa 0 mm
17 septembre 15:59 23.1°C 65% 7.9 km/h SE 1012.3 hPa 0 mm
17 septembre 15:58 22.9°C 65% 4.8 km/h OSO 1012.3 hPa 0 mm
17 septembre 15:57 22.9°C 65% 4.2 km/h NE 1012.3 hPa 0 mm
17 septembre 15:56 22.9°C 67% 4.8 km/h ENE 1012.2 hPa 0 mm
17 septembre 15:55 22.6°C 66% 4.2 km/h ESE 1012.2 hPa 0 mm
17 septembre 15:54 22.6°C 66% 4.8 km/h E 1012.2 hPa 0 mm
17 septembre 15:53 22.7°C 66% 7.4 km/h NE 1012.3 hPa 0 mm
17 septembre 15:52 22.7°C 67% 9.0 km/h NNE 1012.3 hPa 0 mm
17 septembre 15:51 22.7°C 67% 9.0 km/h NNE 1012.3 hPa 0 mm
17 septembre 15:50 22.9°C 66% 8.4 km/h NNE 1012.2 hPa 0 mm
17 septembre 15:49 23.0°C 68% 8.4 km/h NNE 1012.2 hPa 0 mm
17 septembre 15:48 22.8°C 69% 8.4 km/h SSE 1012.2 hPa 0 mm
17 septembre 15:47 22.8°C 67% 9.5 km/h ESE 1012.3 hPa 0 mm
17 septembre 15:46 22.9°C 69% 10.0 km/h E 1012.3 hPa 0 mm
17 septembre 15:45 22.8°C 66% 11.1 km/h SSO 1012.3 hPa 0 mm
17 septembre 15:44 23.0°C 66% 9.0 km/h NE 1012.3 hPa 0 mm
17 septembre 15:43 23.0°C 67% 8.4 km/h NNE 1012.3 hPa 0 mm
17 septembre 15:42 23.0°C 67% 7.4 km/h NNE 1012.3 hPa 0 mm
17 septembre 15:41 23.1°C 69% 9.5 km/h SSO 1012.3 hPa 0 mm
17 septembre 15:40 23.1°C 69% 11.1 km/h SE 1012.4 hPa 0 mm
17 septembre 15:39 22.9°C 70% 10.6 km/h SE 1012.4 hPa 0 mm
17 septembre 15:38 23.0°C 69% 7.9 km/h OSO 1012.4 hPa 0 mm
17 septembre 15:37 23.0°C 70% 6.3 km/h SO 1012.4 hPa 0 mm
17 septembre 15:36 22.8°C 67% 9.5 km/h S 1012.4 hPa 0 mm
17 septembre 15:35 22.8°C 67% 9.0 km/h NE 1012.4 hPa 0 mm
17 septembre 15:34 22.9°C 69% 9.5 km/h S 1012.4 hPa 0 mm
17 septembre 15:33 22.9°C 71% 11.6 km/h SE 1012.4 hPa 0 mm
17 septembre 15:32 22.7°C 67% 6.3 km/h E 1012.4 hPa 0 mm
17 septembre 15:31 22.6°C 67% 3.7 km/h E 1012.4 hPa 0 mm
17 septembre 15:30 22.8°C 69% 4.2 km/h NE 1012.4 hPa 0 mm
17 septembre 15:29 22.8°C 69% 9.0 km/h ESE 1012.4 hPa 0 mm
17 septembre 15:28 22.8°C 71% 7.4 km/h ESE 1012.4 hPa 0 mm
17 septembre 15:27 22.6°C 70% 7.4 km/h SO 1012.4 hPa 0 mm
17 septembre 15:26 22.6°C 69% 8.4 km/h S 1012.4 hPa 0 mm
17 septembre 15:25 22.7°C 68% 9.5 km/h SE 1012.4 hPa 0 mm
17 septembre 15:24 23.0°C 69% 11.6 km/h NE 1012.4 hPa 0 mm
17 septembre 15:23 23.0°C 69% 3.7 km/h SE 1012.4 hPa 0 mm
17 septembre 15:22 23.2°C 69% 5.3 km/h ESE 1012.5 hPa 0 mm
17 septembre 15:21 23.2°C 70% 4.8 km/h NE 1012.5 hPa 0 mm
17 septembre 15:20 23.2°C 71% 4.8 km/h E 1012.5 hPa 0 mm
17 septembre 15:19 23.1°C 71% 4.8 km/h SSO 1012.5 hPa 0 mm
17 septembre 15:18 22.8°C 72% 6.9 km/h E 1012.5 hPa 0 mm
17 septembre 15:17 22.8°C 72% 4.2 km/h ENE 1012.5 hPa 0 mm
17 septembre 15:16 22.7°C 71% 8.4 km/h SSE 1012.5 hPa 0 mm
17 septembre 15:15 22.6°C 70% 8.4 km/h S 1012.5 hPa 0 mm
17 septembre 15:14 22.7°C 71% 7.9 km/h OSO 1012.5 hPa 0 mm
17 septembre 15:13 22.7°C 70% 7.9 km/h SSE 1012.5 hPa 0 mm
17 septembre 15:12 22.8°C 70% 6.9 km/h ENE 1012.5 hPa 0 mm
17 septembre 15:11 22.7°C 73% 7.4 km/h NNE 1012.5 hPa 0 mm
17 septembre 15:10 22.6°C 69% 6.3 km/h SE 1012.5 hPa 0 mm
17 septembre 15:09 23.0°C 72% 9.5 km/h NE 1012.6 hPa 0 mm
17 septembre 15:08 23.0°C 72% 11.6 km/h SE 1012.6 hPa 0 mm
17 septembre 15:07 22.9°C 73% 9.0 km/h S 1012.6 hPa 0 mm
17 septembre 15:06 22.9°C 72% 7.9 km/h SSO 1012.5 hPa 0 mm
17 septembre 15:05 22.8°C 73% 6.3 km/h SE 1012.6 hPa 0 mm
17 septembre 15:04 22.8°C 72% 6.9 km/h NE 1012.5 hPa 0 mm
17 septembre 15:03 22.8°C 72% 5.3 km/h NE 1012.5 hPa 0 mm
17 septembre 15:02 22.7°C 71% 5.8 km/h ESE 1012.5 hPa 0 mm
17 septembre 15:01 22.8°C 72% 7.4 km/h SE 1012.5 hPa 0 mm
17 septembre 15:00 22.7°C 71% 5.8 km/h ENE 1012.6 hPa 0 mm
17 septembre 14:59 22.9°C 71% 6.3 km/h NNE 1012.6 hPa 0 mm
17 septembre 14:58 22.8°C 72% 9.0 km/h S 1012.6 hPa 0 mm
17 septembre 14:57 22.9°C 74% 9.0 km/h SSO 1012.6 hPa 0 mm
17 septembre 14:56 22.9°C 74% 9.5 km/h O 1012.6 hPa 0 mm
17 septembre 14:55 22.8°C 73% 10.0 km/h S 1012.6 hPa 0 mm
17 septembre 14:54 22.8°C 74% 11.6 km/h SSO 1012.6 hPa 0 mm
17 septembre 14:53 22.6°C 74% 7.4 km/h SSO 1012.6 hPa 0 mm
17 septembre 14:52 22.6°C 74% 7.4 km/h SSE 1012.6 hPa 0 mm
17 septembre 14:51 22.4°C 75% 9.0 km/h S 1012.6 hPa 0 mm
17 septembre 14:50 22.1°C 73% 11.1 km/h SO 1012.6 hPa 0 mm
17 septembre 14:49 22.2°C 72% 5.8 km/h SE 1012.6 hPa 0 mm
17 septembre 14:48 22.3°C 72% 7.4 km/h NNE 1012.7 hPa 0 mm
17 septembre 14:47 22.3°C 72% 6.9 km/h NE 1012.7 hPa 0 mm
17 septembre 14:46 22.2°C 73% 3.2 km/h ENE 1012.7 hPa 0 mm
17 septembre 14:45 22.0°C 72% 2.6 km/h ENE 1012.7 hPa 0 mm
17 septembre 14:44 21.9°C 73% 3.7 km/h E 1012.7 hPa 0 mm
17 septembre 14:43 21.9°C 72% 5.8 km/h NE 1012.7 hPa 0 mm
17 septembre 14:42 22.0°C 72% 5.8 km/h NE 1012.8 hPa 0 mm
17 septembre 14:41 22.0°C 73% 5.8 km/h NE 1012.8 hPa 0 mm
17 septembre 14:40 22.1°C 75% 9.5 km/h NNE 1012.8 hPa 0 mm
17 septembre 14:39 21.9°C 75% 6.3 km/h NNE 1012.8 hPa 0 mm
17 septembre 14:38 21.6°C 78% 7.9 km/h ESE 1012.8 hPa 0 mm
17 septembre 14:37 21.2°C 77% 6.9 km/h ENE 1012.8 hPa 0 mm
17 septembre 14:36 21.2°C 77% 5.8 km/h E 1012.8 hPa 0 mm
17 septembre 14:35 20.8°C 77% 5.8 km/h SSO 1012.9 hPa 0 mm
17 septembre 14:34 20.9°C 75% 6.9 km/h ENE 1012.9 hPa 0 mm
17 septembre 14:33 21.2°C 75% 8.4 km/h ENE 1012.9 hPa 0 mm
17 septembre 14:32 21.4°C 74% 10.6 km/h E 1012.9 hPa 0 mm
17 septembre 14:31 21.8°C 73% 8.4 km/h E 1012.9 hPa 0 mm
17 septembre 14:30 22.0°C 74% 11.1 km/h E 1012.9 hPa 0 mm
17 septembre 14:29 22.2°C 74% 8.4 km/h NE 1012.9 hPa 0 mm
17 septembre 14:28 22.2°C 75% 5.3 km/h E 1012.9 hPa 0 mm
17 septembre 14:27 22.2°C 75% 5.3 km/h SE 1012.9 hPa 0 mm
17 septembre 14:26 22.3°C 77% 7.4 km/h S 1013.0 hPa 0 mm
17 septembre 14:25 22.1°C 77% 9.5 km/h SSO 1013.0 hPa 0 mm
17 septembre 14:24 21.9°C 77% 8.4 km/h S 1012.9 hPa 0 mm
17 septembre 14:23 21.7°C 76% 9.0 km/h SE 1013.0 hPa 0 mm
17 septembre 14:22 21.6°C 76% 8.4 km/h ESE 1013.0 hPa 0 mm
17 septembre 14:21 21.6°C 76% 7.4 km/h E 1013.0 hPa 0 mm
17 septembre 14:20 21.8°C 76% 8.4 km/h NE 1013.0 hPa 0 mm
17 septembre 14:19 21.8°C 76% 7.4 km/h E 1013.0 hPa 0 mm
17 septembre 14:18 21.7°C 76% 9.5 km/h ENE 1013.0 hPa 0 mm
17 septembre 14:17 21.8°C 79% 5.3 km/h SE 1013.0 hPa 0 mm
17 septembre 14:16 21.5°C 78% 6.3 km/h E 1013.0 hPa 0 mm
17 septembre 14:15 21.5°C 78% 5.3 km/h O 1013.0 hPa 0 mm
17 septembre 14:14 21.6°C 79% 6.9 km/h O 1013.0 hPa 0 mm
17 septembre 14:13 21.8°C 79% 5.3 km/h ONO 1013.0 hPa 0 mm
17 septembre 14:12 21.9°C 78% 6.3 km/h NNE 1013.0 hPa 0 mm
17 septembre 14:11 21.5°C 78% 5.8 km/h SE 1013.0 hPa 0 mm
17 septembre 14:10 21.4°C 78% 4.8 km/h SE 1013.0 hPa 0 mm
17 septembre 14:09 21.3°C 77% 5.3 km/h SE 1013.0 hPa 0 mm
17 septembre 14:08 21.3°C 77% 5.3 km/h ENE 1013.1 hPa 0 mm
17 septembre 14:07 21.4°C 78% 5.8 km/h E 1013.1 hPa 0 mm
17 septembre 14:06 21.2°C 78% 6.9 km/h N 1013.1 hPa 0 mm
17 septembre 14:05 21.1°C 78% 7.4 km/h S 1013.1 hPa 0 mm
17 septembre 14:04 20.9°C 79% 6.9 km/h E 1013.1 hPa 0 mm
17 septembre 14:03 21.0°C 79% 5.8 km/h NE 1013.1 hPa 0 mm
17 septembre 14:02 20.7°C 79% 6.9 km/h SE 1013.1 hPa 0 mm
17 septembre 14:01 20.7°C 79% 10.0 km/h E 1013.1 hPa 0 mm
17 septembre 14:00 20.5°C 79% 10.6 km/h NNE 1013.1 hPa 0 mm
17 septembre 13:59 20.5°C 79% 9.0 km/h NNE 1013.1 hPa 0 mm
17 septembre 13:58 20.6°C 79% 7.9 km/h NE 1013.1 hPa 0 mm
17 septembre 13:57 20.6°C 79% 4.8 km/h NNE 1013.1 hPa 0 mm
17 septembre 13:56 20.7°C 79% 4.2 km/h NNE 1013.1 hPa 0 mm
17 septembre 13:55 20.8°C 78% 6.9 km/h NE 1013.2 hPa 0 mm
17 septembre 13:54 20.8°C 78% 6.3 km/h ENE 1013.2 hPa 0 mm
17 septembre 13:53 21.0°C 78% 9.0 km/h NE 1013.2 hPa 0 mm
17 septembre 13:52 21.3°C 80% 8.4 km/h NNE 1013.2 hPa 0 mm
17 septembre 13:51 21.1°C 80% 4.8 km/h ENE 1013.2 hPa 0 mm
17 septembre 13:50 20.9°C 81% 5.3 km/h NNE 1013.2 hPa 0 mm
17 septembre 13:49 20.9°C 81% 5.8 km/h NNE 1013.2 hPa 0 mm
17 septembre 13:48 20.8°C 80% 7.9 km/h NE 1013.2 hPa 0 mm
17 septembre 13:47 20.8°C 81% 3.7 km/h ESE 1013.2 hPa 0 mm
17 septembre 13:46 20.8°C 81% 2.1 km/h NE 1013.2 hPa 0 mm
17 septembre 13:45 20.8°C 81% 2.6 km/h ESE 1013.3 hPa 0 mm
17 septembre 13:44 20.8°C 81% 5.3 km/h OSO 1013.3 hPa 0 mm
17 septembre 13:43 21.0°C 79% 7.4 km/h NNE 1013.4 hPa 0 mm
17 septembre 13:42 21.2°C 80% 6.9 km/h SSO 1013.4 hPa 0 mm
17 septembre 13:41 21.4°C 79% 9.5 km/h SSE 1013.4 hPa 0 mm
17 septembre 13:40 21.8°C 78% 4.8 km/h NE 1013.4 hPa 0 mm
17 septembre 13:39 21.8°C 79% 6.9 km/h NE 1013.3 hPa 0 mm
17 septembre 13:38 21.8°C 80% 5.8 km/h NE 1013.4 hPa 0 mm
17 septembre 13:37 21.4°C 80% 8.4 km/h SE 1013.4 hPa 0 mm
17 septembre 13:36 21.2°C 82% 9.5 km/h SE 1013.4 hPa 0 mm
17 septembre 13:35 21.2°C 82% 10.6 km/h SE 1013.4 hPa 0 mm
17 septembre 13:34 20.8°C 81% 5.3 km/h SO 1013.4 hPa 0 mm
17 septembre 13:33 20.4°C 81% 7.4 km/h SE 1013.4 hPa 0 mm
17 septembre 13:32 20.0°C 81% 7.9 km/h ESE 1013.5 hPa 0 mm
17 septembre 13:31 19.9°C 80% 4.8 km/h NE 1013.6 hPa 0 mm
17 septembre 13:30 20.1°C 81% 6.9 km/h NNE 1013.4 hPa 0 mm
17 septembre 13:29 20.2°C 80% 7.9 km/h NE 1013.3 hPa 0 mm
17 septembre 13:28 20.3°C 80% 6.9 km/h NNE 1013.3 hPa 0 mm
17 septembre 13:27 20.7°C 79% 7.4 km/h NNE 1013.3 hPa 0 mm
17 septembre 13:26 20.7°C 79% 13.2 km/h NE 1013.3 hPa 0 mm
17 septembre 13:25 20.8°C 80% 8.4 km/h E 1013.3 hPa 0 mm
17 septembre 13:24 20.9°C 80% 4.8 km/h NNE 1013.3 hPa 0 mm
17 septembre 13:23 20.7°C 81% 6.3 km/h ENE 1013.4 hPa 0 mm
17 septembre 13:22 20.7°C 81% 2.1 km/h ESE 1013.4 hPa 0 mm
17 septembre 13:21 20.5°C 82% 3.2 km/h ENE 1013.4 hPa 0 mm
17 septembre 13:20 20.5°C 82% 4.8 km/h ENE 1013.4 hPa 0 mm
17 septembre 13:19 20.2°C 82% 3.7 km/h E 1013.4 hPa 0 mm
17 septembre 13:18 20.2°C 81% 3.2 km/h NE 1013.4 hPa 0 mm
17 septembre 13:17 20.3°C 81% 6.3 km/h NNE 1013.5 hPa 0 mm
17 septembre 13:16 20.5°C 83% 7.4 km/h NNE 1013.5 hPa 0 mm
17 septembre 13:15 20.5°C 83% 6.3 km/h E 1013.5 hPa 0 mm
17 septembre 13:14 20.5°C 83% 6.3 km/h NNE 1013.5 hPa 0 mm
17 septembre 13:13 20.5°C 83% 6.3 km/h SSE 1013.4 hPa 0 mm
17 septembre 13:12 20.5°C 83% 5.8 km/h ESE 1013.5 hPa 0 mm
17 septembre 13:11 20.5°C 83% 7.4 km/h SE 1013.5 hPa 0 mm
17 septembre 13:10 20.2°C 83% 6.3 km/h ESE 1013.5 hPa 0 mm
17 septembre 13:09 20.0°C 82% 5.8 km/h E 1013.5 hPa 0 mm
17 septembre 13:08 20.0°C 82% 4.8 km/h NE 1013.5 hPa 0 mm
17 septembre 13:07 20.1°C 82% 3.2 km/h NNE 1013.5 hPa 0 mm
17 septembre 13:06 20.4°C 81% 9.0 km/h NNE 1013.5 hPa 0 mm
17 septembre 13:05 20.4°C 83% 9.5 km/h ENE 1013.5 hPa 0 mm
17 septembre 13:04 20.0°C 84% 7.9 km/h ENE 1013.5 hPa 0 mm
17 septembre 13:03 20.0°C 84% 9.0 km/h NNE 1013.5 hPa 0 mm
17 septembre 13:02 20.0°C 84% 5.8 km/h ENE 1013.5 hPa 0 mm
17 septembre 13:01 20.0°C 84% 6.3 km/h NE 1013.6 hPa 0 mm
17 septembre 13:00 20.0°C 84% 7.4 km/h NE 1013.6 hPa 0 mm
17 septembre 12:59 20.0°C 84% 6.9 km/h NE 1013.6 hPa 0 mm
17 septembre 12:58 19.8°C 84% 5.3 km/h ENE 1013.6 hPa 0 mm
17 septembre 12:57 19.7°C 85% 5.8 km/h SSE 1013.6 hPa 0 mm
17 septembre 12:56 19.5°C 85% 6.3 km/h SE 1013.6 hPa 0 mm
17 septembre 12:55 19.5°C 84% 6.3 km/h NE 1013.6 hPa 0 mm
17 septembre 12:54 19.5°C 84% 6.9 km/h E 1013.6 hPa 0 mm
17 septembre 12:53 19.7°C 85% 7.9 km/h SSE 1013.6 hPa 0 mm
17 septembre 12:52 19.9°C 84% 6.9 km/h SSE 1013.6 hPa 0 mm
17 septembre 12:51 19.7°C 84% 9.5 km/h NNE 1013.6 hPa 0 mm
17 septembre 12:50 19.7°C 84% 5.8 km/h NE 1013.7 hPa 0 mm
17 septembre 12:49 19.8°C 84% 4.8 km/h NNE 1013.6 hPa 0 mm
17 septembre 12:48 19.8°C 84% 6.3 km/h NE 1013.7 hPa 0 mm
17 septembre 12:47 19.6°C 85% 4.2 km/h E 1013.7 hPa 0 mm
17 septembre 12:46 19.2°C 84% 1.6 km/h NE 1013.6 hPa 0 mm
17 septembre 12:45 19.3°C 85% 3.2 km/h NNE 1013.7 hPa 0 mm
17 septembre 12:44 19.3°C 85% 3.7 km/h NE 1013.7 hPa 0 mm
17 septembre 12:43 19.4°C 84% 5.8 km/h E 1013.7 hPa 0 mm
17 septembre 12:42 19.7°C 84% 5.3 km/h NNE 1013.7 hPa 0 mm
17 septembre 12:41 19.7°C 84% 6.3 km/h E 1013.7 hPa 0 mm
17 septembre 12:40 20.0°C 85% 7.9 km/h ENE 1013.7 hPa 0 mm
17 septembre 12:39 19.8°C 85% 3.7 km/h SE 1013.7 hPa 0 mm
17 septembre 12:38 19.8°C 85% 4.8 km/h NNE 1013.7 hPa 0 mm
17 septembre 12:37 19.7°C 85% 5.8 km/h NNE 1013.7 hPa 0 mm
17 septembre 12:36 19.8°C 85% 5.8 km/h NNE 1013.7 hPa 0 mm
17 septembre 12:35 19.8°C 85% 6.3 km/h NE 1013.7 hPa 0 mm
17 septembre 12:34 19.9°C 85% 5.3 km/h ENE 1013.7 hPa 0 mm
17 septembre 12:33 19.9°C 85% 5.8 km/h E 1013.7 hPa 0 mm
17 septembre 12:32 19.7°C 86% 5.3 km/h SSO 1013.7 hPa 0 mm
17 septembre 12:31 19.7°C 86% 6.3 km/h ESE 1013.7 hPa 0 mm
17 septembre 12:30 19.5°C 88% 4.2 km/h SSO 1013.7 hPa 0 mm
17 septembre 12:29 19.1°C 87% 4.2 km/h S 1013.7 hPa 0 mm
17 septembre 12:28 19.1°C 87% 2.6 km/h NE 1013.7 hPa 0 mm
17 septembre 12:27 18.6°C 88% 3.7 km/h ENE 1013.8 hPa 0 mm
17 septembre 12:26 18.6°C 88% 4.8 km/h N 1013.7 hPa 0 mm
17 septembre 12:25 18.6°C 88% 5.8 km/h NE 1013.7 hPa 0 mm
17 septembre 12:24 18.6°C 88% 7.4 km/h SE 1013.8 hPa 0 mm
17 septembre 12:23 18.6°C 88% 8.4 km/h SSE 1013.8 hPa 0 mm
17 septembre 12:22 18.6°C 88% 7.9 km/h OSO 1013.8 hPa 0 mm
17 septembre 12:21 18.6°C 88% 6.9 km/h SO 1013.9 hPa 0 mm
17 septembre 12:20 18.6°C 88% 6.3 km/h ESE 1013.9 hPa 0 mm
17 septembre 12:19 18.6°C 88% 3.7 km/h ENE 1013.9 hPa 0 mm
17 septembre 12:18 18.6°C 88% 4.8 km/h ENE 1013.9 hPa 0 mm
17 septembre 12:17 18.6°C 88% 6.3 km/h ESE 1013.9 hPa 0 mm
17 septembre 12:16 18.6°C 88% 5.8 km/h NE 1013.9 hPa 0 mm
17 septembre 12:15 18.8°C 87% 6.9 km/h S 1014.0 hPa 0 mm
17 septembre 12:14 19.6°C 87% 5.3 km/h ENE 1013.9 hPa 0 mm
17 septembre 12:13 19.6°C 87% 5.3 km/h NE 1013.9 hPa 0 mm
17 septembre 12:12 19.6°C 87% 4.8 km/h NNE 1014.0 hPa 0 mm
17 septembre 12:11 19.8°C 88% 4.2 km/h ESE 1014.0 hPa 0 mm
17 septembre 12:10 19.8°C 88% 5.8 km/h NNE 1013.9 hPa 0 mm
17 septembre 12:09 19.3°C 88% 5.3 km/h SSE 1013.8 hPa 0 mm
17 septembre 12:08 19.3°C 88% 3.2 km/h ESE 1013.8 hPa 0 mm
17 septembre 12:07 19.1°C 88% 2.6 km/h OSO 1013.8 hPa 0 mm
17 septembre 12:06 18.9°C 87% 1.1 km/h O 1013.8 hPa 0 mm
17 septembre 12:05 19.0°C 88% 2.1 km/h SO 1013.8 hPa 0 mm
17 septembre 12:04 18.7°C 90% 3.2 km/h O 1013.8 hPa 0 mm
17 septembre 12:03 18.7°C 90% 5.3 km/h SSO 1013.8 hPa 0 mm
17 septembre 12:02 18.1°C 90% 5.3 km/h SO 1013.8 hPa 0 mm
17 septembre 12:01 18.1°C 90% 4.8 km/h OSO 1013.9 hPa 0 mm
17 septembre 12:00 17.9°C 89% 3.7 km/h S 1013.9 hPa 0 mm
17 septembre 11:59 17.9°C 89% 4.2 km/h ENE 1013.9 hPa 0 mm
17 septembre 11:58 18.1°C 89% 4.2 km/h NNE 1013.9 hPa 0 mm
17 septembre 11:57 18.3°C 89% 4.8 km/h E 1013.9 hPa 0 mm
17 septembre 11:56 18.4°C 89% 4.2 km/h NNE 1013.9 hPa 0 mm
17 septembre 11:55 18.4°C 89% 1.6 km/h ESE 1013.9 hPa 0 mm
17 septembre 11:54 18.0°C 90% 2.6 km/h ESE 1013.9 hPa 0 mm
17 septembre 11:53 18.0°C 90% 3.7 km/h ENE 1013.9 hPa 0 mm
17 septembre 11:52 17.7°C 90% 5.3 km/h ESE 1013.9 hPa 0 mm
17 septembre 11:51 17.6°C 90% 4.2 km/h NNE 1013.9 hPa 0 mm
17 septembre 11:51 17.5°C 89% 4.8 km/h NE 1013.9 hPa 0 mm
17 septembre 11:50 17.8°C 90% 5.8 km/h NNE 1013.9 hPa 0 mm
17 septembre 11:49 17.8°C 90% 5.3 km/h ENE 1013.9 hPa 0 mm
17 septembre 11:48 18.1°C 91% 5.8 km/h NNE 1013.9 hPa 0 mm
17 septembre 11:47 18.0°C 90% 6.3 km/h E 1013.9 hPa 0 mm
17 septembre 11:46 18.0°C 90% 6.9 km/h SSE 1013.9 hPa 0 mm
17 septembre 11:45 18.2°C 90% 7.4 km/h OSO 1013.9 hPa 0 mm
17 septembre 11:44 18.2°C 91% 6.9 km/h SSO 1013.9 hPa 0 mm
17 septembre 11:43 18.2°C 91% 4.8 km/h NE 1013.9 hPa 0 mm
17 septembre 11:42 18.2°C 91% 5.8 km/h ENE 1013.9 hPa 0 mm
17 septembre 11:41 18.2°C 91% 3.7 km/h NNE 1013.9 hPa 0 mm
17 septembre 11:40 17.8°C 90% 2.6 km/h ENE 1014.0 hPa 0 mm
17 septembre 11:39 17.9°C 90% 5.3 km/h NE 1013.9 hPa 0 mm
17 septembre 11:38 17.9°C 90% 5.8 km/h NE 1014.0 hPa 0 mm
17 septembre 11:37 17.9°C 89% 4.8 km/h NNE 1014.0 hPa 0 mm
17 septembre 11:36 18.3°C 89% 5.8 km/h E 1014.0 hPa 0 mm
17 septembre 11:35 18.3°C 89% 4.2 km/h SSE 1013.9 hPa 0 mm
17 septembre 11:34 18.5°C 89% 4.8 km/h E 1013.9 hPa 0 mm
17 septembre 11:33 18.8°C 89% 6.3 km/h E 1013.9 hPa 0 mm
17 septembre 11:32 18.8°C 89% 7.4 km/h ENE 1013.9 hPa 0 mm
17 septembre 11:31 18.1°C 91% 4.2 km/h SO 1014.0 hPa 0 mm
17 septembre 11:30 18.1°C 91% 4.8 km/h SE 1014.0 hPa 0 mm
17 septembre 11:29 18.1°C 91% 4.2 km/h SSO 1014.0 hPa 0 mm
17 septembre 11:28 18.1°C 91% 5.3 km/h ESE 1014.0 hPa 0 mm
17 septembre 11:27 17.9°C 91% 5.3 km/h OSO 1014.0 hPa 0 mm
17 septembre 11:26 17.9°C 91% 4.8 km/h NE 1014.0 hPa 0 mm
17 septembre 11:25 17.9°C 91% 2.6 km/h SO 1014.0 hPa 0 mm
17 septembre 11:24 17.6°C 90% 4.2 km/h S 1014.0 hPa 0 mm
17 septembre 11:23 17.8°C 91% 3.7 km/h ESE 1014.0 hPa 0 mm
17 septembre 11:22 17.9°C 90% 3.7 km/h NNE 1014.0 hPa 0 mm
17 septembre 11:21 17.9°C 90% 3.2 km/h SE 1014.0 hPa 0 mm
17 septembre 11:20 18.0°C 91% 5.8 km/h N 1014.1 hPa 0 mm
17 septembre 11:19 18.0°C 91% 6.9 km/h NE 1014.0 hPa 0 mm
17 septembre 11:18 18.0°C 91% 6.3 km/h ENE 1014.0 hPa 0 mm
17 septembre 11:17 18.0°C 91% 4.2 km/h ENE 1014.0 hPa 0 mm
17 septembre 11:16 17.8°C 92% 5.3 km/h NE 1014.0 hPa 0 mm
17 septembre 11:15 17.6°C 92% 3.7 km/h NNE 1014.0 hPa 0 mm
17 septembre 11:14 17.6°C 92% 3.2 km/h NE 1014.0 hPa 0 mm
17 septembre 11:13 17.5°C 92% 3.2 km/h NE 1014.0 hPa 0 mm
17 septembre 11:12 17.4°C 93% 2.1 km/h NE 1014.0 hPa 0 mm
17 septembre 11:11 17.2°C 93% 2.6 km/h ENE 1014.0 hPa 0 mm
17 septembre 11:10 17.1°C 94% 3.2 km/h E 1014.0 hPa 0 mm
17 septembre 11:09 17.1°C 94% 3.7 km/h ENE 1014.1 hPa 0 mm
17 septembre 11:08 16.8°C 94% 2.6 km/h ENE 1014.1 hPa 0 mm
17 septembre 11:07 16.7°C 94% 3.2 km/h NE 1014.1 hPa 0 mm
17 septembre 11:06 16.7°C 94% 1.6 km/h SSE 1014.0 hPa 0 mm
17 septembre 11:05 16.8°C 94% 3.2 km/h SSE 1014.0 hPa 0 mm
17 septembre 11:04 16.6°C 94% 2.1 km/h ENE 1014.0 hPa 0 mm
17 septembre 11:03 16.7°C 94% 2.6 km/h NE 1014.0 hPa 0 mm
17 septembre 11:02 16.7°C 94% 3.2 km/h NE 1014.1 hPa 0 mm
17 septembre 11:01 16.6°C 94% 2.6 km/h E 1014.0 hPa 0 mm
17 septembre 11:00 16.3°C 95% 2.1 km/h E 1014.0 hPa 0 mm
17 septembre 10:59 16.3°C 95% 3.2 km/h ENE 1014.0 hPa 0 mm
17 septembre 10:58 16.3°C 95% 3.2 km/h ENE 1014.0 hPa 0 mm
17 septembre 10:57 16.3°C 95% 2.6 km/h NE 1014.0 hPa 0 mm
17 septembre 10:56 16.3°C 95% 2.6 km/h NNE 1014.0 hPa 0 mm
17 septembre 10:55 16.0°C 95% 2.6 km/h NE 1014.0 hPa 0 mm
17 septembre 10:54 16.0°C 95% 3.7 km/h NE 1014.0 hPa 0 mm
17 septembre 10:53 15.9°C 95% 3.2 km/h ENE 1014.0 hPa 0 mm
17 septembre 10:52 15.9°C 95% 4.2 km/h ENE 1014.0 hPa 0 mm
17 septembre 10:51 15.9°C 95% 5.3 km/h ENE 1014.0 hPa 0 mm
17 septembre 10:50 15.9°C 95% 5.3 km/h NNE 1014.0 hPa 0 mm
17 septembre 10:49 15.9°C 95% 2.6 km/h NE 1014.0 hPa 0 mm
17 septembre 10:48 15.8°C 95% 4.8 km/h NE 1014.1 hPa 0 mm
17 septembre 10:47 15.7°C 95% 4.2 km/h NE 1014.1 hPa 0 mm
17 septembre 10:46 15.7°C 95% 4.8 km/h NE 1014.1 hPa 0 mm
17 septembre 10:45 15.7°C 95% 2.6 km/h NNE 1014.1 hPa 0 mm
17 septembre 10:44 15.7°C 95% 3.7 km/h NNE 1014.1 hPa 0 mm
17 septembre 10:43 15.7°C 96% 4.2 km/h NE 1014.1 hPa 0 mm
17 septembre 10:42 15.7°C 96% 2.6 km/h ENE 1014.1 hPa 0 mm
17 septembre 10:41 15.7°C 96% 2.1 km/h E 1014.1 hPa 0 mm
17 septembre 10:40 15.7°C 96% 2.6 km/h NNE 1014.1 hPa 0 mm
17 septembre 10:39 15.7°C 96% 3.7 km/h N 1014.1 hPa 0 mm
17 septembre 10:38 15.7°C 96% 4.2 km/h NNE 1014.1 hPa 0 mm
17 septembre 10:37 15.6°C 96% 3.2 km/h NE 1014.2 hPa 0 mm
17 septembre 10:36 15.6°C 96% 4.2 km/h NE 1014.1 hPa 0 mm
17 septembre 10:35 15.7°C 96% 4.8 km/h NE 1014.1 hPa 0 mm
17 septembre 10:34 15.7°C 96% 5.8 km/h NE 1014.1 hPa 0 mm
17 septembre 10:33 15.7°C 96% 5.8 km/h NNE 1014.1 hPa 0 mm
17 septembre 10:32 15.7°C 96% 4.8 km/h NE 1014.1 hPa 0 mm
17 septembre 10:31 15.7°C 96% 5.3 km/h NNE 1014.1 hPa 0 mm
17 septembre 10:30 15.7°C 96% 4.8 km/h NNE 1014.1 hPa 0 mm
17 septembre 10:29 15.6°C 96% 5.8 km/h NNE 1014.1 hPa 0 mm
17 septembre 10:28 15.6°C 96% 5.3 km/h N 1014.1 hPa 0 mm
17 septembre 10:27 15.7°C 96% 3.7 km/h NNE 1014.1 hPa 0 mm
17 septembre 10:26 15.7°C 96% 3.7 km/h NNE 1014.1 hPa 0 mm
17 septembre 10:25 15.8°C 96% 4.8 km/h ENE 1014.0 hPa 0 mm
17 septembre 10:24 15.8°C 96% 3.2 km/h ESE 1014.0 hPa 0 mm
17 septembre 10:23 15.7°C 96% 2.6 km/h NNE 1014.0 hPa 0 mm
17 septembre 10:22 15.5°C 96% 3.7 km/h NE 1014.1 hPa 0 mm
17 septembre 10:21 15.5°C 96% 2.6 km/h NE 1014.0 hPa 0 mm
17 septembre 10:20 15.5°C 96% 2.6 km/h NNE 1014.1 hPa 0 mm
17 septembre 10:19 15.6°C 96% 4.8 km/h NE 1014.1 hPa 0 mm
17 septembre 10:18 15.6°C 96% 3.2 km/h NE 1014.1 hPa 0 mm
17 septembre 10:17 15.6°C 96% 1.6 km/h E 1014.0 hPa 0 mm
17 septembre 10:16 15.7°C 96% 3.2 km/h N 1014.1 hPa 0 mm
17 septembre 10:15 15.7°C 96% 3.2 km/h ESE 1014.0 hPa 0 mm
17 septembre 10:14 15.8°C 96% 3.7 km/h NE 1014.0 hPa 0 mm
17 septembre 10:13 15.8°C 96% 3.7 km/h SSO 1014.0 hPa 0 mm
17 septembre 10:12 15.8°C 96% 5.3 km/h SE 1014.0 hPa 0 mm
17 septembre 10:11 15.7°C 96% 4.8 km/h SO 1014.0 hPa 0 mm
17 septembre 10:10 15.7°C 96% 3.7 km/h E 1014.0 hPa 0 mm
17 septembre 10:09 15.6°C 96% 4.8 km/h ENE 1014.0 hPa 0 mm
17 septembre 10:08 15.6°C 96% 3.7 km/h E 1014.1 hPa 0 mm
17 septembre 10:07 15.7°C 96% 3.7 km/h NE 1014.0 hPa 0 mm
17 septembre 10:06 15.7°C 96% 4.2 km/h NE 1014.0 hPa 0 mm
17 septembre 10:05 15.7°C 96% 1.1 km/h NE 1014.0 hPa 0 mm
17 septembre 10:04 15.6°C 96% 2.6 km/h NE 1014.0 hPa 0 mm
17 septembre 10:03 15.6°C 96% 4.2 km/h N 1014.0 hPa 0 mm
17 septembre 10:02 15.6°C 96% 2.6 km/h ENE 1014.0 hPa 0 mm
17 septembre 10:01 15.6°C 96% 5.3 km/h NNE 1014.0 hPa 0 mm
17 septembre 10:00 15.7°C 96% 5.3 km/h N 1014.0 hPa 0 mm
17 septembre 09:59 15.8°C 96% 5.3 km/h SSE 1014.0 hPa 0 mm
17 septembre 09:58 15.8°C 96% 3.7 km/h NE 1014.0 hPa 0 mm
17 septembre 09:57 15.8°C 96% 3.7 km/h ESE 1014.0 hPa 0 mm
17 septembre 09:56 15.7°C 96% 3.7 km/h NNE 1014.0 hPa 0 mm
17 septembre 09:55 15.7°C 96% 4.2 km/h NE 1014.0 hPa 0 mm
17 septembre 09:54 15.7°C 96% 4.2 km/h N 1014.0 hPa 0 mm
17 septembre 09:53 15.7°C 96% 5.3 km/h NNE 1014.0 hPa 0 mm
17 septembre 09:52 15.8°C 96% 5.8 km/h NE 1014.0 hPa 0 mm
17 septembre 09:51 15.9°C 96% 6.3 km/h NE 1014.0 hPa 0 mm
17 septembre 09:50 15.8°C 96% 7.9 km/h S 1014.0 hPa 0 mm
17 septembre 09:49 15.8°C 96% 5.3 km/h E 1014.0 hPa 0 mm
17 septembre 09:48 15.8°C 96% 4.8 km/h ESE 1014.0 hPa 0 mm
17 septembre 09:47 15.8°C 96% 5.8 km/h SSE 1014.0 hPa 0.14 mm
17 septembre 09:46 15.8°C 96% 2.6 km/h SSE 1014.0 hPa 0 mm
17 septembre 09:45 15.8°C 96% 5.3 km/h NNE 1014.0 hPa 0 mm
17 septembre 09:44 15.8°C 96% 5.3 km/h SE 1014.0 hPa 0 mm
17 septembre 09:43 15.8°C 96% 4.8 km/h N 1014.0 hPa 0 mm
17 septembre 09:42 15.7°C 96% 5.3 km/h E 1014.0 hPa 0 mm
17 septembre 09:41 15.7°C 96% 5.3 km/h NE 1014.1 hPa 0 mm
17 septembre 09:40 15.7°C 96% 4.8 km/h SE 1014.0 hPa 0 mm
17 septembre 09:39 15.7°C 96% 4.2 km/h NE 1014.0 hPa 0 mm
17 septembre 09:38 15.7°C 96% 4.8 km/h E 1014.1 hPa 0 mm
17 septembre 09:37 15.8°C 96% 5.3 km/h E 1014.1 hPa 0 mm
17 septembre 09:36 15.8°C 96% 6.3 km/h E 1014.1 hPa 0 mm
17 septembre 09:35 15.8°C 96% 3.2 km/h NNE 1014.0 hPa 0 mm
17 septembre 09:34 15.8°C 96% 5.8 km/h ENE 1014.0 hPa 0 mm
17 septembre 09:33 15.9°C 96% 4.8 km/h NNE 1014.1 hPa 0 mm
17 septembre 09:32 15.9°C 96% 4.8 km/h SSO 1014.0 hPa 0 mm
17 septembre 09:31 15.8°C 96% 4.8 km/h SE 1014.0 hPa 0 mm
17 septembre 09:30 15.8°C 96% 4.8 km/h OSO 1014.0 hPa 0 mm
17 septembre 09:29 15.7°C 96% 4.8 km/h ONO 1014.0 hPa 0 mm
17 septembre 09:28 15.7°C 96% 4.2 km/h OSO 1014.1 hPa 0 mm
17 septembre 09:27 15.7°C 96% 5.8 km/h OSO 1014.1 hPa 0 mm
17 septembre 09:26 15.7°C 96% 5.3 km/h OSO 1014.0 hPa 0 mm
17 septembre 09:25 15.7°C 96% 5.8 km/h SSE 1014.0 hPa 0 mm
17 septembre 09:24 15.7°C 96% 5.8 km/h OSO 1014.0 hPa 0 mm
17 septembre 09:23 15.7°C 96% 5.8 km/h OSO 1014.0 hPa 0 mm
17 septembre 09:22 15.6°C 96% 4.2 km/h OSO 1014.0 hPa 0 mm
17 septembre 09:21 15.6°C 96% 4.8 km/h SSE 1014.0 hPa 0 mm
17 septembre 09:20 15.6°C 96% 4.2 km/h NE 1014.0 hPa 0 mm
17 septembre 09:19 15.6°C 96% 4.2 km/h N 1014.0 hPa 0 mm
17 septembre 09:18 15.7°C 96% 5.8 km/h NE 1014.0 hPa 0 mm
17 septembre 09:17 15.7°C 96% 5.3 km/h ENE 1014.0 hPa 0 mm
17 septembre 09:16 15.7°C 96% 6.3 km/h SSO 1014.0 hPa 0 mm
17 septembre 09:15 15.7°C 96% 4.2 km/h E 1014.0 hPa 0 mm
17 septembre 09:14 15.8°C 96% 4.2 km/h SSE 1014.0 hPa 0 mm
17 septembre 09:13 15.8°C 96% 6.3 km/h SSO 1014.1 hPa 0 mm
17 septembre 09:12 15.8°C 96% 6.3 km/h SO 1014.1 hPa 0 mm
17 septembre 09:11 15.8°C 96% 6.3 km/h SSO 1014.1 hPa 0 mm
17 septembre 09:10 15.7°C 96% 5.8 km/h SSO 1014.1 hPa 0 mm
17 septembre 09:09 15.7°C 96% 5.8 km/h SO 1014.1 hPa 0 mm
17 septembre 09:08 15.7°C 96% 4.8 km/h E 1014.1 hPa 0 mm
17 septembre 09:07 15.7°C 96% 5.8 km/h SO 1014.1 hPa 0 mm
17 septembre 09:06 15.8°C 96% 5.3 km/h SSO 1014.1 hPa 0 mm
17 septembre 09:05 15.8°C 96% 6.3 km/h SSE 1014.1 hPa 0 mm
17 septembre 09:04 15.7°C 96% 5.8 km/h O 1014.1 hPa 0 mm
17 septembre 09:03 15.7°C 96% 5.8 km/h ONO 1014.1 hPa 0 mm
17 septembre 09:02 15.7°C 96% 5.3 km/h SSO 1014.1 hPa 0 mm
17 septembre 09:01 15.7°C 96% 5.8 km/h SO 1014.1 hPa 0 mm
17 septembre 09:00 15.7°C 96% 5.3 km/h SSE 1014.1 hPa 0 mm
17 septembre 08:59 15.7°C 96% 3.2 km/h E 1014.1 hPa 0 mm
17 septembre 08:58 15.7°C 96% 4.2 km/h SE 1014.1 hPa 0 mm
17 septembre 08:57 15.6°C 96% 5.3 km/h S 1014.1 hPa 0 mm
17 septembre 08:56 15.6°C 96% 5.3 km/h E 1014.1 hPa 0 mm
17 septembre 08:55 15.6°C 96% 2.6 km/h SE 1014.1 hPa 0 mm
17 septembre 08:54 15.6°C 96% 3.2 km/h SSO 1014.1 hPa 0 mm
17 septembre 08:53 15.6°C 96% 3.7 km/h SO 1014.1 hPa 0 mm
17 septembre 08:52 15.6°C 96% 1.6 km/h S 1014.1 hPa 0 mm
17 septembre 08:51 15.6°C 96% 2.6 km/h SSE 1014.1 hPa 0 mm
17 septembre 08:50 15.6°C 96% 3.2 km/h SO 1014.1 hPa 0 mm
17 septembre 08:49 15.6°C 97% 4.2 km/h OSO 1014.1 hPa 0 mm
17 septembre 08:48 15.6°C 97% 2.6 km/h O 1014.2 hPa 0 mm
17 septembre 08:47 15.5°C 96% 2.6 km/h OSO 1014.1 hPa 0 mm
17 septembre 08:46 15.5°C 96% 3.2 km/h ONO 1014.2 hPa 0 mm
17 septembre 08:45 15.5°C 96% 3.2 km/h SE 1014.2 hPa 0 mm
17 septembre 08:44 15.5°C 97% 3.7 km/h ONO 1014.1 hPa 0 mm
17 septembre 08:43 15.5°C 96% 3.2 km/h S 1014.1 hPa 0 mm
17 septembre 08:42 15.5°C 96% 2.1 km/h ENE 1014.1 hPa 0 mm
17 septembre 08:41 15.5°C 96% 1.6 km/h NNE 1014.1 hPa 0 mm
17 septembre 08:40 15.6°C 97% 2.1 km/h NNE 1014.1 hPa 0 mm
17 septembre 08:39 15.6°C 97% 3.7 km/h N 1014.1 hPa 0 mm
17 septembre 08:38 15.6°C 97% 4.2 km/h ENE 1014.1 hPa 0 mm
17 septembre 08:37 15.6°C 97% 4.2 km/h ESE 1014.1 hPa 0 mm
17 septembre 08:36 15.6°C 97% 2.6 km/h ENE 1014.1 hPa 0 mm
17 septembre 08:35 15.6°C 97% 3.2 km/h ENE 1014.1 hPa 0 mm
17 septembre 08:34 15.5°C 97% 3.2 km/h S 1014.1 hPa 0 mm
17 septembre 08:33 15.5°C 97% 4.2 km/h OSO 1014.1 hPa 0 mm
17 septembre 08:32 15.5°C 97% 7.4 km/h ENE 1014.1 hPa 0 mm
17 septembre 08:31 15.5°C 96% 6.3 km/h OSO 1014.1 hPa 0 mm
17 septembre 08:30 15.5°C 96% 3.7 km/h NE 1014.1 hPa 0 mm
17 septembre 08:29 15.5°C 96% 4.8 km/h ESE 1014.1 hPa 0 mm
17 septembre 08:28 15.7°C 97% 6.3 km/h S 1014.1 hPa 0 mm
17 septembre 08:27 15.7°C 97% 5.3 km/h SSO 1014.1 hPa 0 mm
17 septembre 08:26 15.6°C 97% 4.8 km/h S 1014.1 hPa 0 mm
17 septembre 08:25 15.6°C 97% 4.8 km/h S 1014.1 hPa 0 mm
17 septembre 08:24 15.6°C 97% 4.2 km/h SSO 1014.1 hPa 0 mm
17 septembre 08:23 15.6°C 97% 5.8 km/h ENE 1014.1 hPa 0 mm
17 septembre 08:22 15.6°C 97% 5.8 km/h O 1014.1 hPa 0 mm
17 septembre 08:21 15.6°C 97% 5.3 km/h SSO 1014.1 hPa 0 mm
17 septembre 08:20 15.6°C 97% 6.3 km/h ONO 1014.1 hPa 0 mm
17 septembre 08:19 15.7°C 97% 6.3 km/h ONO 1014.1 hPa 0 mm
17 septembre 08:18 15.7°C 97% 5.8 km/h OSO 1014.0 hPa 0 mm
17 septembre 08:17 15.6°C 97% 4.8 km/h SSO 1014.0 hPa 0 mm
17 septembre 08:16 15.6°C 97% 4.8 km/h SO 1014.1 hPa 0 mm
17 septembre 08:15 15.6°C 97% 5.3 km/h OSO 1014.0 hPa 0 mm
17 septembre 08:14 15.6°C 97% 5.8 km/h OSO 1014.0 hPa 0 mm
17 septembre 08:13 15.5°C 97% 5.8 km/h ONO 1014.0 hPa 0 mm
17 septembre 08:12 15.5°C 97% 5.3 km/h OSO 1014.0 hPa 0 mm
17 septembre 08:11 15.5°C 97% 6.9 km/h SSO 1014.1 hPa 0 mm
17 septembre 08:10 15.5°C 97% 6.9 km/h SE 1014.1 hPa 0 mm
17 septembre 08:09 15.5°C 97% 6.3 km/h NE 1014.1 hPa 0 mm
17 septembre 08:08 15.6°C 96% 4.8 km/h SSO 1014.1 hPa 0 mm
17 septembre 08:07 15.6°C 96% 4.8 km/h ESE 1014.1 hPa 0 mm
17 septembre 08:06 15.7°C 97% 5.3 km/h ENE 1014.0 hPa 0 mm
17 septembre 08:05 15.7°C 97% 6.3 km/h ESE 1014.0 hPa 0 mm
17 septembre 08:04 15.7°C 97% 5.3 km/h SSO 1014.0 hPa 0 mm
17 septembre 08:03 15.7°C 97% 6.3 km/h SSO 1014.0 hPa 0 mm
17 septembre 08:02 15.7°C 97% 6.3 km/h O 1014.0 hPa 0 mm
17 septembre 08:01 15.7°C 97% 4.2 km/h ENE 1014.0 hPa 0 mm
17 septembre 08:00 15.7°C 97% 4.2 km/h NNE 1014.0 hPa 0 mm
17 septembre 07:59 15.7°C 97% 4.2 km/h SE 1014.0 hPa 0 mm
17 septembre 07:58 15.7°C 97% 2.1 km/h SE 1014.0 hPa 0 mm
17 septembre 07:57 15.7°C 97% 3.2 km/h ENE 1014.0 hPa 0 mm
17 septembre 07:56 15.7°C 97% 3.7 km/h ONO 1014.0 hPa 0 mm
17 septembre 07:55 15.7°C 97% 3.2 km/h SE 1014.0 hPa 0 mm
17 septembre 07:54 15.7°C 97% 4.8 km/h NNE 1014.1 hPa 0 mm
17 septembre 07:53 15.7°C 97% 5.3 km/h NE 1014.1 hPa 0 mm
17 septembre 07:52 15.7°C 97% 3.2 km/h NNE 1014.1 hPa 0 mm
17 septembre 07:51 15.7°C 97% 2.6 km/h NE 1014.1 hPa 0 mm
17 septembre 07:50 15.7°C 97% 3.2 km/h NE 1014.1 hPa 0 mm
17 septembre 07:49 15.7°C 97% 3.2 km/h NNE 1014.1 hPa 0 mm
17 septembre 07:48 15.7°C 97% 4.2 km/h NNE 1014.1 hPa 0 mm
17 septembre 07:47 15.7°C 97% 4.2 km/h E 1014.1 hPa 0 mm
17 septembre 07:46 15.7°C 97% 5.8 km/h NNE 1014.2 hPa 0 mm
17 septembre 07:45 15.7°C 97% 3.2 km/h NNE 1014.2 hPa 0 mm
17 septembre 07:44 15.7°C 97% 3.7 km/h NE 1014.3 hPa 0 mm
17 septembre 07:43 15.7°C 97% 4.2 km/h NE 1014.2 hPa 0 mm
17 septembre 07:42 15.7°C 97% 4.8 km/h NE 1014.1 hPa 0 mm
17 septembre 07:41 15.7°C 97% 4.8 km/h NE 1014.1 hPa 0 mm
17 septembre 07:40 15.7°C 97% 4.2 km/h NNE 1014.1 hPa 0 mm
17 septembre 07:39 15.7°C 97% 3.2 km/h ESE 1014.1 hPa 0 mm
17 septembre 07:38 15.7°C 97% 2.6 km/h E 1014.0 hPa 0 mm
17 septembre 07:37 15.7°C 97% 4.2 km/h NE 1014.0 hPa 0 mm
17 septembre 07:36 15.7°C 97% 2.1 km/h NNE 1014.0 hPa 0 mm
17 septembre 07:35 15.7°C 97% 1.6 km/h NE 1014.0 hPa 0 mm
17 septembre 07:34 15.7°C 97% 3.7 km/h NNE 1014.0 hPa 0 mm
17 septembre 07:33 15.7°C 97% 3.7 km/h NE 1014.0 hPa 0 mm
17 septembre 07:32 15.7°C 97% 4.2 km/h N 1014.0 hPa 0 mm
17 septembre 07:31 15.7°C 97% 5.3 km/h N 1013.9 hPa 0 mm
17 septembre 07:30 15.7°C 97% 5.3 km/h NE 1013.9 hPa 0 mm
17 septembre 07:29 15.7°C 97% 4.8 km/h NE 1013.9 hPa 0 mm
17 septembre 07:28 15.7°C 97% 3.2 km/h NNE 1013.9 hPa 0 mm
17 septembre 07:27 15.7°C 97% 2.6 km/h NNE 1014.0 hPa 0 mm
17 septembre 07:26 15.7°C 97% 3.2 km/h SSE 1014.1 hPa 0 mm
17 septembre 07:25 15.7°C 97% 3.7 km/h ENE 1014.0 hPa 0 mm
17 septembre 07:24 15.7°C 97% 4.2 km/h NNE 1013.9 hPa 0 mm
17 septembre 07:23 15.7°C 97% 3.7 km/h NE 1013.9 hPa 0 mm
17 septembre 07:22 15.8°C 97% 4.2 km/h NNE 1013.8 hPa 0 mm
17 septembre 07:21 15.7°C 97% 4.8 km/h NE 1013.8 hPa 0 mm
17 septembre 07:20 15.7°C 97% 3.7 km/h NNE 1013.8 hPa 0 mm
17 septembre 07:19 15.7°C 97% 3.7 km/h NNE 1013.8 hPa 0 mm
17 septembre 07:18 15.7°C 97% 5.3 km/h NNE 1013.8 hPa 0 mm
17 septembre 07:17 15.8°C 97% 4.8 km/h ENE 1013.8 hPa 0 mm
17 septembre 07:16 15.8°C 97% 3.7 km/h SE 1013.8 hPa 0 mm
17 septembre 07:15 15.8°C 97% 3.7 km/h S 1013.8 hPa 0 mm
17 septembre 07:14 15.8°C 97% 3.7 km/h S 1013.8 hPa 0 mm
17 septembre 07:13 15.8°C 97% 3.7 km/h E 1013.8 hPa 0 mm
17 septembre 07:12 15.8°C 97% 5.3 km/h ENE 1013.8 hPa 0 mm
17 septembre 07:11 15.8°C 97% 4.8 km/h SSO 1013.8 hPa 0 mm
17 septembre 07:10 15.8°C 97% 5.8 km/h S 1013.8 hPa 0 mm
17 septembre 07:09 15.8°C 97% 3.7 km/h S 1013.8 hPa 0 mm
17 septembre 07:08 15.8°C 97% 4.2 km/h NNE 1013.8 hPa 0 mm
17 septembre 07:07 15.8°C 97% 2.6 km/h ESE 1013.8 hPa 0 mm
17 septembre 07:06 15.8°C 97% 4.8 km/h E 1013.8 hPa 0 mm
17 septembre 07:05 15.8°C 97% 5.3 km/h SSE 1013.8 hPa 0 mm
17 septembre 07:04 15.8°C 97% 5.3 km/h SSO 1013.8 hPa 0 mm
17 septembre 07:03 15.8°C 97% 4.8 km/h SSE 1013.8 hPa 0 mm
17 septembre 07:02 15.8°C 97% 3.2 km/h SSE 1013.8 hPa 0 mm
17 septembre 07:01 15.8°C 97% 3.2 km/h SSE 1013.7 hPa 0 mm
17 septembre 07:00 15.8°C 97% 3.7 km/h SE 1013.8 hPa 0 mm
17 septembre 06:59 15.8°C 97% 4.8 km/h SE 1013.8 hPa 0 mm
17 septembre 06:58 15.8°C 97% 4.2 km/h S 1013.8 hPa 0 mm
17 septembre 06:57 15.8°C 97% 3.7 km/h ENE 1013.8 hPa 0 mm
17 septembre 06:56 15.8°C 97% 4.2 km/h SE 1013.8 hPa 0 mm
17 septembre 06:55 15.8°C 97% 3.2 km/h ESE 1013.8 hPa 0 mm
17 septembre 06:54 15.9°C 97% 3.2 km/h ESE 1013.8 hPa 0 mm
17 septembre 06:53 15.8°C 97% 4.2 km/h SSE 1013.8 hPa 0 mm
17 septembre 06:52 15.8°C 97% 4.8 km/h SE 1013.8 hPa 0 mm
17 septembre 06:51 15.8°C 97% 4.8 km/h SSO 1013.8 hPa 0 mm
17 septembre 06:50 15.8°C 97% 4.8 km/h SSE 1013.8 hPa 0 mm
17 septembre 06:49 15.9°C 97% 4.8 km/h SO 1013.8 hPa 0 mm
17 septembre 06:48 15.9°C 97% 4.8 km/h SE 1013.8 hPa 0 mm
17 septembre 06:47 15.8°C 97% 5.3 km/h SSO 1013.8 hPa 0 mm
17 septembre 06:46 15.8°C 97% 5.3 km/h S 1013.8 hPa 0 mm
17 septembre 06:45 15.8°C 97% 4.8 km/h SSO 1013.8 hPa 0 mm
17 septembre 06:44 15.8°C 97% 5.3 km/h SO 1013.8 hPa 0 mm
17 septembre 06:43 15.8°C 96% 5.8 km/h SO 1013.8 hPa 0 mm
17 septembre 06:42 15.8°C 97% 5.8 km/h OSO 1013.8 hPa 0 mm
17 septembre 06:41 15.8°C 97% 5.3 km/h S 1013.8 hPa 0 mm
17 septembre 06:40 15.8°C 97% 4.2 km/h SE 1013.8 hPa 0 mm
17 septembre 06:39 15.8°C 97% 4.8 km/h S 1013.8 hPa 0 mm
17 septembre 06:38 15.8°C 97% 5.3 km/h OSO 1013.8 hPa 0 mm
17 septembre 06:37 15.8°C 96% 6.9 km/h SSE 1013.8 hPa 0 mm
17 septembre 06:36 15.8°C 96% 4.8 km/h SO 1013.8 hPa 0 mm
17 septembre 06:35 15.8°C 96% 4.8 km/h ONO 1013.9 hPa 0 mm
17 septembre 06:34 15.8°C 96% 3.7 km/h OSO 1013.9 hPa 0 mm
17 septembre 06:33 15.8°C 96% 4.8 km/h SO 1013.9 hPa 0 mm
17 septembre 06:32 15.8°C 96% 4.8 km/h OSO 1013.9 hPa 0 mm
17 septembre 06:31 15.8°C 96% 4.8 km/h O 1013.9 hPa 0 mm
17 septembre 06:30 15.8°C 96% 5.3 km/h O 1013.9 hPa 0 mm
17 septembre 06:29 15.8°C 96% 4.8 km/h ONO 1013.9 hPa 0 mm
17 septembre 06:28 15.8°C 96% 5.3 km/h ONO 1013.9 hPa 0 mm
17 septembre 06:27 15.8°C 96% 4.2 km/h ONO 1013.9 hPa 0 mm
17 septembre 06:26 15.8°C 96% 4.8 km/h SSO 1013.9 hPa 0 mm
17 septembre 06:25 15.8°C 96% 5.3 km/h ONO 1013.9 hPa 0 mm
17 septembre 06:24 15.8°C 96% 4.2 km/h SO 1013.8 hPa 0 mm
17 septembre 06:23 15.8°C 96% 4.2 km/h O 1013.8 hPa 0 mm
17 septembre 06:22 15.8°C 96% 3.7 km/h O 1013.8 hPa 0 mm
17 septembre 06:21 15.8°C 96% 4.2 km/h O 1013.8 hPa 0 mm
17 septembre 06:20 15.9°C 96% 5.3 km/h ONO 1013.8 hPa 0 mm
17 septembre 06:19 15.9°C 96% 5.3 km/h OSO 1013.8 hPa 0 mm
17 septembre 06:18 15.9°C 96% 6.3 km/h SO 1013.9 hPa 0 mm
17 septembre 06:17 15.9°C 96% 6.3 km/h SSO 1013.9 hPa 0 mm
17 septembre 06:16 15.9°C 96% 5.8 km/h O 1013.8 hPa 0 mm
17 septembre 06:15 15.8°C 96% 6.3 km/h OSO 1013.9 hPa 0 mm
17 septembre 06:14 15.8°C 96% 4.2 km/h O 1013.9 hPa 0 mm
17 septembre 06:13 15.9°C 96% 4.2 km/h OSO 1013.9 hPa 0 mm
17 septembre 06:12 15.9°C 96% 4.2 km/h ONO 1013.9 hPa 0 mm
17 septembre 06:11 15.9°C 96% 3.7 km/h ONO 1013.9 hPa 0 mm
17 septembre 06:10 15.9°C 96% 4.8 km/h SSO 1013.9 hPa 0 mm
17 septembre 06:09 15.9°C 96% 3.7 km/h ONO 1013.9 hPa 0 mm
17 septembre 06:08 15.8°C 96% 4.2 km/h O 1013.9 hPa 0 mm
17 septembre 06:07 15.8°C 96% 4.8 km/h O 1013.9 hPa 0 mm
17 septembre 06:06 15.8°C 96% 4.2 km/h SO 1013.9 hPa 0 mm
17 septembre 06:05 15.9°C 96% 4.8 km/h E 1013.9 hPa 0 mm
17 septembre 06:04 15.9°C 96% 3.2 km/h SSO 1013.9 hPa 0 mm
17 septembre 06:03 15.8°C 96% 4.2 km/h SE 1013.9 hPa 0 mm
17 septembre 06:02 15.8°C 96% 3.7 km/h SSO 1013.9 hPa 0 mm
17 septembre 06:01 15.8°C 96% 3.2 km/h NE 1013.9 hPa 0 mm
17 septembre 06:00 15.8°C 96% 3.7 km/h ESE 1013.9 hPa 0 mm
17 septembre 05:59 15.9°C 96% 3.7 km/h ESE 1013.9 hPa 0 mm
17 septembre 05:58 15.9°C 96% 4.2 km/h E 1013.9 hPa 0 mm
17 septembre 05:57 15.9°C 96% 3.2 km/h SO 1013.9 hPa 0 mm
17 septembre 05:56 15.9°C 96% 3.2 km/h ESE 1013.9 hPa 0 mm
17 septembre 05:55 15.9°C 96% 4.2 km/h SSE 1013.9 hPa 0 mm
17 septembre 05:54 15.9°C 96% 4.2 km/h SE 1013.9 hPa 0 mm
17 septembre 05:53 15.9°C 96% 4.8 km/h SO 1013.9 hPa 0 mm
17 septembre 05:52 15.8°C 96% 3.7 km/h E 1013.9 hPa 0 mm
17 septembre 05:51 15.8°C 96% 4.2 km/h SE 1014.0 hPa 0 mm
17 septembre 05:50 15.8°C 96% 3.7 km/h NE 1014.0 hPa 0 mm
17 septembre 05:49 15.8°C 96% 2.1 km/h NE 1014.0 hPa 0 mm
17 septembre 05:48 15.9°C 96% 4.2 km/h N 1014.0 hPa 0 mm
17 septembre 05:47 15.9°C 96% 4.2 km/h NE 1014.0 hPa 0 mm
17 septembre 05:46 15.9°C 96% 3.2 km/h SSE 1014.0 hPa 0 mm
17 septembre 05:45 15.9°C 96% 3.7 km/h ESE 1014.0 hPa 0 mm
17 septembre 05:44 15.9°C 96% 4.2 km/h SE 1014.0 hPa 0 mm
17 septembre 05:43 15.8°C 96% 4.2 km/h SE 1014.0 hPa 0 mm
17 septembre 05:42 15.8°C 96% 3.7 km/h ESE 1014.0 hPa 0 mm
17 septembre 05:41 15.8°C 96% 3.2 km/h ESE 1014.0 hPa 0 mm
17 septembre 05:40 15.8°C 96% 4.2 km/h S 1014.0 hPa 0 mm
17 septembre 05:39 15.8°C 96% 2.6 km/h E 1014.0 hPa 0 mm
17 septembre 05:38 15.9°C 96% 2.6 km/h ESE 1014.1 hPa 0 mm
17 septembre 05:37 15.9°C 96% 4.2 km/h SE 1014.0 hPa 0 mm
17 septembre 05:36 15.8°C 96% 3.7 km/h E 1014.0 hPa 0 mm
17 septembre 05:35 15.9°C 96% 4.8 km/h NE 1014.0 hPa 0 mm
17 septembre 05:34 15.9°C 96% 3.7 km/h ENE 1014.0 hPa 0 mm
17 septembre 05:33 15.9°C 96% 4.8 km/h S 1014.0 hPa 0 mm
17 septembre 05:32 15.9°C 96% 4.8 km/h SSO 1014.0 hPa 0 mm
17 septembre 05:31 15.9°C 96% 3.7 km/h SSE 1014.0 hPa 0 mm
17 septembre 05:30 15.9°C 96% 4.8 km/h E 1014.0 hPa 0 mm
17 septembre 05:29 15.9°C 96% 4.2 km/h E 1014.0 hPa 0 mm
17 septembre 05:28 15.9°C 96% 3.2 km/h E 1014.0 hPa 0 mm
17 septembre 05:27 15.9°C 96% 3.2 km/h NE 1014.0 hPa 0 mm
17 septembre 05:26 15.9°C 96% 2.6 km/h ENE 1014.1 hPa 0 mm
17 septembre 05:25 15.9°C 96% 4.2 km/h ESE 1014.1 hPa 0 mm
17 septembre 05:24 15.9°C 96% 3.7 km/h NNE 1014.0 hPa 0 mm
17 septembre 05:23 15.9°C 96% 4.8 km/h SSE 1014.1 hPa 0 mm
17 septembre 05:22 15.9°C 96% 4.8 km/h S 1014.1 hPa 0 mm
17 septembre 05:21 15.9°C 96% 3.7 km/h E 1014.1 hPa 0 mm
17 septembre 05:20 15.9°C 96% 4.2 km/h SSE 1014.1 hPa 0 mm
17 septembre 05:19 15.9°C 96% 5.8 km/h SSE 1014.1 hPa 0 mm
17 septembre 05:18 15.9°C 96% 5.3 km/h SE 1014.1 hPa 0 mm
17 septembre 05:17 15.9°C 96% 3.2 km/h E 1014.1 hPa 0 mm
17 septembre 05:16 15.9°C 96% 2.6 km/h E 1014.1 hPa 0 mm
17 septembre 05:15 15.9°C 96% 2.1 km/h NE 1014.1 hPa 0 mm
17 septembre 05:14 15.9°C 96% 4.8 km/h NE 1014.1 hPa 0 mm
17 septembre 05:13 15.9°C 96% 5.8 km/h E 1014.1 hPa 0 mm
17 septembre 05:12 15.9°C 96% 5.3 km/h SE 1014.1 hPa 0 mm
17 septembre 05:11 15.9°C 96% 4.8 km/h E 1014.2 hPa 0 mm
17 septembre 05:10 15.9°C 96% 4.8 km/h NE 1014.1 hPa 0 mm
17 septembre 05:09 16.0°C 96% 4.8 km/h E 1014.1 hPa 0 mm
17 septembre 05:08 16.0°C 96% 3.7 km/h S 1014.1 hPa 0 mm
17 septembre 05:07 16.0°C 96% 3.7 km/h ENE 1014.2 hPa 0 mm
17 septembre 05:06 16.0°C 96% 4.8 km/h ENE 1014.2 hPa 0 mm
17 septembre 05:05 16.0°C 96% 4.2 km/h SE 1014.2 hPa 0 mm
17 septembre 05:04 16.0°C 96% 5.3 km/h SSE 1014.3 hPa 0 mm
17 septembre 05:03 16.0°C 96% 5.3 km/h SSO 1014.2 hPa 0 mm
17 septembre 05:02 16.0°C 96% 4.8 km/h SO 1014.3 hPa 0 mm
17 septembre 05:01 16.0°C 96% 4.8 km/h S 1014.3 hPa 0 mm
17 septembre 05:00 16.0°C 96% 4.8 km/h SE 1014.3 hPa 0 mm
17 septembre 04:59 16.0°C 96% 6.3 km/h S 1014.3 hPa 0 mm
17 septembre 04:58 16.0°C 96% 5.8 km/h SE 1014.3 hPa 0 mm
17 septembre 04:57 16.1°C 96% 5.8 km/h E 1014.3 hPa 0 mm
17 septembre 04:56 16.1°C 96% 7.9 km/h E 1014.4 hPa 0 mm
17 septembre 04:55 16.1°C 96% 7.4 km/h OSO 1014.4 hPa 0 mm